GW2826 Weather Reports


Display with metric or nautical units.
time (UTC)temp
F
wind
direction
speed
MPH
gust
MPH
rain 1hr
in
rain 24hr
in
rain mn
in
humidity
%
barometer
mb
20260509034604 44 41 1.0 3.0 0.00 0.00 0.00 94 1008.2
20260509034503 44 45 1.0 3.0 0.00 0.00 0.00 94 1008.5
20260509034404 44 49 1.0 3.0 0.00 0.00 0.00 94 1008.2
20260509034304 44 51 1.0 3.0 0.00 0.00 0.00 94 1008.2
20260509034225 44 52 1.0 3.0 0.00 0.00 0.00 94 1008.2
20260509034103 44 56 1.0 3.0 0.00 0.00 0.00 94 1008.3
20260509034004 44 59 1.0 3.0 0.00 0.00 0.00 94 1008.4
20260509033903 44 58 1.0 3.0 0.00 0.00 0.00 94 1008.5
20260509033804 44 57 1.0 3.0 0.00 0.00 0.00 94 1008.4
20260509033704 44 56 1.0 3.0 0.00 0.00 0.00 94 1008.4
20260509033603 44 56 1.0 3.0 0.00 0.00 0.00 94 1008.5
20260509033504 44 52 1.0 3.0 0.00 0.00 0.00 94 1008.5
20260509033403 44 48 1.0 3.0 0.00 0.00 0.00 94 1008.5
20260509033304 44 46 1.0 2.0 0.00 0.00 0.00 94 1008.4
20260509033203 44 44 1.0 2.0 0.00 0.00 0.00 94 1008.3
20260509033104 44 42 1.0 2.0 0.00 0.00 0.00 94 1008.5
20260509033003 45 44 1.0 2.0 0.00 0.00 0.00 94 1008.6
20260509032903 45 46 1.0 2.0 0.00 0.00 0.00 94 1008.7
20260509032803 45 48 1.0 2.0 0.00 0.00 0.00 94 1008.5
20260509032703 45 53 1.0 3.0 0.00 0.00 0.00 94 1008.4
20260509032604 45 58 1.0 3.0 0.00 0.00 0.00 94 1008.3
20260509032524 45 62 1.0 3.0 0.00 0.00 0.00 94 1008.5
20260509032404 44 70 1.0 3.0 0.00 0.00 0.00 94 1008.3
20260509032306 44 73 1.0 3.0 0.00 0.00 0.00 94 1008.3
20260509032203 44 76 1.0 3.0 0.00 0.00 0.00 94 1008.4
20260509032125 44 78 2.0 3.0 0.00 0.00 0.00 94 1008.4
20260509032003 44 81 2.0 4.0 0.00 0.00 0.00 94 1008.4
20260509031903 44 83 2.0 4.0 0.00 0.00 0.00 94 1008.2
20260509031803 44 84 2.0 4.0 0.00 0.00 0.00 94 1008.3
20260509031704 44 85 2.0 4.0 0.00 0.00 0.00 94 1008.6
20260509031603 44 85 3.0 4.0 0.00 0.00 0.00 94 1008.8
20260509031504 44 84 3.0 4.0 0.00 0.00 0.00 94 1008.5
20260509031403 44 85 3.0 4.0 0.00 0.00 0.00 94 1008.4
20260509031304 44 82 3.0 4.0 0.00 0.00 0.00 94 1008.3
20260509031224 44 82 3.0 4.0 0.00 0.00 0.00 94 1008.3
20260509031103 44 80 3.0 4.0 0.00 0.00 0.00 94 1008.1
20260509031024 44 80 3.0 4.0 0.00 0.00 0.00 94 1008.4
20260509030903 44 77 3.0 6.0 0.00 0.00 0.00 94 1008.4
20260509030804 44 75 4.0 7.0 0.00 0.00 0.00 94 1008.4
20260509030724 44 74 4.0 7.0 0.00 0.00 0.00 94 1008.1
20260509030603 45 73 4.0 7.0 0.00 0.00 0.00 93 1008.4
20260509030503 45 72 4.0 7.0 0.00 0.00 0.00 93 1008.4
20260509030424 45 71 4.0 7.0 0.00 0.00 0.00 93 1008.2
20260509030303 45 71 4.0 7.0 0.00 0.00 0.00 93 1008.6
20260509030203 45 70 3.0 7.0 0.00 0.00 0.00 93 1008.3
20260509030125 45 71 3.0 7.0 0.00 0.00 0.00 93 1008.5
20260509030024 45 69 3.0 7.0 0.00 0.00 0.00 92 1008.3
20260509025903 45 67 3.0 7.0 0.00 0.00 0.00 92 1008.2
20260509025803 45 64 2.0 7.0 0.00 0.00 0.00 92 1008.2
20260509025703 45 61 2.0 7.0 0.00 0.00 0.00 92 1008.4
20260509025603 45 57 2.0 7.0 0.00 0.00 0.00 92 1008.3
20260509025525 45 54 2.0 4.0 0.00 0.00 0.00 92 1008.2
20260509025403 45 48 1.0 4.0 0.00 0.00 0.00 92 1008.5
20260509025306 45 45 1.0 4.0 0.00 0.00 0.00 92 1008.3
20260509025203 45 38 1.0 2.0 0.00 0.00 0.00 92 1008.2
20260509025103 45 34 1.0 2.0 0.00 0.00 0.00 92 1008.2
20260509025024 45 37 1.0 6.0 0.00 0.00 0.00 92 1008.3
20260509024903 45 37 1.0 6.0 0.00 0.00 0.00 92 1008.4
20260509024803 45 41 1.0 6.0 0.00 0.00 0.00 92 1008.2
20260509024703 45 44 1.0 6.0 0.00 0.00 0.00 92 1008.2
20260509024603 45 48 1.0 6.0 0.00 0.00 0.00 92 1008.2
20260509024503 45 50 2.0 6.0 0.00 0.00 0.00 92 1008.2
20260509024403 45 52 2.0 6.0 0.00 0.00 0.00 92 1008.1
20260509024304 45 52 2.0 6.0 0.00 0.00 0.00 92 1008.3
20260509024203 45 54 2.0 6.0 0.00 0.00 0.00 92 1008.4
20260509024103 45 56 2.0 6.0 0.00 0.00 0.00 92 1008.2
20260509024003 45 57 2.0 6.0 0.00 0.00 0.00 92 1008.3
20260509023924 45 61 2.0 6.0 0.00 0.00 0.00 92 1008.1
20260509023803 45 60 2.0 4.0 0.00 0.00 0.00 92 1008.4
20260509023724 45 61 2.0 4.0 0.00 0.00 0.00 92 1008.5
20260509023604 45 62 2.0 4.0 0.00 0.00 0.00 92 1008.1
20260509023503 45 62 2.0 4.0 0.00 0.00 0.00 92 1008.5
20260509023403 45 61 2.0 4.0 0.00 0.00 0.00 93 1008.4
20260509023324 45 62 3.0 4.0 0.00 0.00 0.00 93 1008.5
20260509023204 45 64 3.0 4.0 0.00 0.00 0.00 93 1008.1
20260509023103 45 63 3.0 4.0 0.00 0.00 0.00 93 1008.2
20260509023003 45 64 3.0 4.0 0.00 0.00 0.00 93 1008.2
20260509022903 45 64 3.0 4.0 0.00 0.00 0.00 93 1008.2
20260509022803 45 64 3.0 4.0 0.00 0.00 0.00 93 1008.3
20260509022703 45 65 3.0 4.0 0.00 0.00 0.00 93 1008.3
20260509022604 45 65 3.0 4.0 0.00 0.00 0.00 93 1008.5
20260509022503 45 65 3.0 4.0 0.00 0.00 0.00 93 1008.6
20260509022403 45 65 3.0 4.0 0.00 0.00 0.00 93 1008.2
20260509022306 45 64 3.0 4.0 0.00 0.00 0.00 93 1008.5
20260509022203 45 64 3.0 4.0 0.00 0.00 0.00 93 1008.4
20260509022103 45 64 3.0 4.0 0.00 0.00 0.00 93 1008.3
20260509022003 45 65 2.0 4.0 0.00 0.00 0.00 93 1008.6
20260509021903 45 65 2.0 4.0 0.00 0.00 0.00 93 1008.6
20260509021824 45 65 2.0 4.0 0.00 0.00 0.00 93 1008.5
20260509021703 45 67 2.0 4.0 0.00 0.00 0.00 93 1008.7
20260509021604 45 68 2.0 4.0 0.00 0.00 0.00 93 1008.4
20260509021503 45 71 2.0 4.0 0.00 0.00 0.00 93 1008.6
20260509021404 45 73 2.0 4.0 0.00 0.00 0.00 93 1008.5
20260509021303 45 77 2.0 4.0 0.00 0.00 0.00 93 1008.3
20260509021204 45 79 3.0 4.0 0.00 0.00 0.00 93 1008.5
20260509021103 45 80 3.0 4.0 0.00 0.00 0.00 93 1008.7
20260509021004 45 81 3.0 4.0 0.00 0.00 0.00 93 1008.8
20260509020924 45 81 3.0 4.0 0.00 0.00 0.00 93 1008.5
20260509020803 45 80 3.0 6.0 0.00 0.00 0.00 93 1008.6
20260509020703 45 77 3.0 6.0 0.00 0.00 0.00 92 1008.8
20260509020603 45 76 3.0 6.0 0.00 0.00 0.00 92 1008.7
20260509020503 45 74 3.0 6.0 0.00 0.00 0.00 92 1008.5
20260509020403 45 73 3.0 6.0 0.00 0.00 0.00 92 1008.6
20260509020325 45 72 3.0 6.0 0.00 0.00 0.00 92 1008.8
20260509020203 46 67 2.0 6.0 0.00 0.00 0.00 91 1008.4
20260509020004 46 62 2.0 6.0 0.00 0.00 0.00 91 1008.6
20260509015903 46 59 2.0 6.0 0.00 0.00 0.00 91 1008.6
20260509015804 46 58 2.0 6.0 0.00 0.00 0.00 91 1008.4
20260509015703 46 54 2.0 6.0 0.00 0.00 0.00 91 1008.4
20260509015604 46 51 2.0 4.0 0.00 0.00 0.00 91 1008.6
20260509015503 46 48 1.0 4.0 0.00 0.00 0.00 91 1008.6
20260509015403 46 45 1.0 4.0 0.00 0.00 0.00 91 1008.6
20260509015324 46 41 1.0 4.0 0.00 0.00 0.00 91 1008.5
20260509015203 46 36 1.0 4.0 0.00 0.00 0.00 91 1008.7
20260509015103 46 31 1.0 3.0 0.00 0.00 0.00 91 1008.7
20260509015003 46 29 1.0 3.0 0.00 0.00 0.00 91 1008.5
20260509014925 46 27 1.0 3.0 0.00 0.00 0.00 91 1008.7
20260509014803 46 26 1.0 3.0 0.00 0.00 0.00 91 1008.6
20260509014703 46 29 1.0 3.0 0.00 0.00 0.00 91 1008.4
20260509014624 46 28 1.0 3.0 0.00 0.00 0.00 91 1008.4
20260509014504 46 28 1.0 3.0 0.00 0.00 0.00 91 1008.5
20260509014424 46 30 1.0 3.0 0.00 0.00 0.00 91 1008.5
20260509014303 46 31 1.0 3.0 0.00 0.00 0.00 91 1008.5
20260509014203 46 33 1.0 3.0 0.00 0.00 0.00 91 1008.3
20260509014103 46 34 1.0 3.0 0.00 0.00 0.00 91 1008.7
20260509014003 46 33 1.0 3.0 0.00 0.00 0.00 91 1008.5
20260509013903 46 36 2.0 3.0 0.00 0.00 0.00 91 1008.5
20260509013803 46 39 1.0 3.0 0.00 0.00 0.00 91 1008.4
20260509013703 46 41 2.0 4.0 0.00 0.00 0.00 91 1008.4
20260509013624 46 41 1.0 4.0 0.00 0.00 0.00 91 1008.3
20260509013503 46 44 2.0 4.0 0.00 0.00 0.00 91 1008.3
20260509013424 46 44 2.0 4.0 0.00 0.00 0.00 91 1008.4
20260509013303 46 46 2.0 4.0 0.00 0.00 0.00 91 1008.4
20260509013224 46 48 2.0 4.0 0.00 0.00 0.00 91 1008.6
20260509013104 46 48 1.0 4.0 0.00 0.00 0.00 91 1008.5
20260509013003 46 46 2.0 4.0 0.00 0.00 0.00 91 1008.5
20260509012903 46 47 2.0 4.0 0.00 0.00 0.00 91 1008.3
20260509012803 46 46 2.0 4.0 0.00 0.00 0.00 91 1008.5
20260509012703 46 46 2.0 4.0 0.00 0.00 0.00 91 1008.5
20260509012624 46 44 2.0 4.0 0.00 0.00 0.00 91 1008.5
20260509012524 46 44 2.0 4.0 0.00 0.00 0.00 91 1008.5
20260509012403 46 40 2.0 3.0 0.00 0.00 0.00 91 1008.3
20260509012306 46 35 2.0 3.0 0.00 0.00 0.00 91 1008.5
20260509012203 46 33 2.0 3.0 0.00 0.00 0.00 91 1008.7
20260509012103 46 31 2.0 3.0 0.00 0.00 0.00 91 1008.3
20260509012003 46 32 1.0 3.0 0.00 0.00 0.00 91 1008.6
20260509011903 46 30 1.0 3.0 0.00 0.00 0.00 91 1008.7
20260509011803 46 29 1.0 3.0 0.00 0.00 0.00 91 1008.3
20260509011724 46 26 1.0 3.0 0.00 0.00 0.00 91 1008.5
20260509011624 46 25 1.0 3.0 0.00 0.00 0.00 91 1008.3
20260509011503 47 22 1.0 3.0 0.00 0.00 0.00 91 1008.4
20260509011403 47 22 1.0 3.0 0.00 0.00 0.00 91 1008.4
20260509011304 47 25 1.0 3.0 0.00 0.00 0.00 91 1008.5
20260509011203 47 23 1.0 3.0 0.00 0.00 0.00 91 1008.6
20260509011103 47 23 1.0 3.0 0.00 0.00 0.00 91 1008.6
20260509011024 47 22 1.0 3.0 0.00 0.00 0.00 91 1008.7
20260509010904 47 20 1.0 3.0 0.00 0.00 0.00 91 1008.5
20260509010803 47 20 1.0 3.0 0.00 0.00 0.00 91 1008.6
20260509010703 47 23 1.0 3.0 0.00 0.00 0.00 91 1008.4
20260509010603 47 22 1.0 3.0 0.00 0.00 0.00 91 1008.5
20260509010503 47 24 1.0 3.0 0.00 0.00 0.00 91 1008.4
20260509010424 47 27 1.0 3.0 0.00 0.00 0.00 91 1008.6
20260509010303 47 27 1.0 3.0 0.00 0.00 0.00 91 1008.4
20260509010203 47 27 1.0 3.0 0.00 0.00 0.00 91 1008.4
20260509010124 47 26 1.0 3.0 0.00 0.00 0.00 91 1008.4
20260509010004 47 28 1.0 3.0 0.00 0.00 0.00 91 1008.4
20260509005903 47 30 2.0 3.0 0.00 0.00 0.00 91 1008.4
20260509005803 47 33 2.0 3.0 0.00 0.00 0.00 91 1008.5
20260509005703 47 32 2.0 3.0 0.00 0.00 0.00 91 1008.5
20260509005603 47 33 2.0 3.0 0.00 0.00 0.00 91 1008.4
20260509005503 47 35 2.0 3.0 0.00 0.00 0.00 91 1008.5
20260509005403 47 30 2.0 3.0 0.00 0.00 0.00 90 1008.6
20260509005306 47 30 2.0 3.0 0.00 0.00 0.00 90 1008.3
20260509005203 47 32 2.0 3.0 0.00 0.00 0.00 90 1008.3
20260509005104 47 34 2.0 3.0 0.00 0.00 0.00 90 1008.5
20260509005024 47 33 2.0 3.0 0.00 0.00 0.00 90 1008.2
20260509004903 47 34 2.0 3.0 0.00 0.00 0.00 90 1008.5
20260509004803 47 35 2.0 3.0 0.00 0.00 0.00 90 1008.4
20260509004703 47 34 2.0 3.0 0.00 0.00 0.00 90 1008.4
20260509004603 47 33 2.0 3.0 0.00 0.00 0.00 90 1008.4
20260509004503 47 31 2.0 4.0 0.00 0.00 0.00 90 1008.4
20260509004403 47 33 2.0 4.0 0.00 0.00 0.00 90 1008.5
20260509004303 47 29 2.0 6.0 0.00 0.00 0.00 90 1008.3
20260509004203 47 26 2.0 6.0 0.00 0.00 0.00 90 1008.2
20260509004103 47 28 2.0 6.0 0.00 0.00 0.00 90 1008.4
20260509004003 47 27 2.0 6.0 0.00 0.00 0.00 90 1008.4
20260509003924 47 27 2.0 6.0 0.00 0.00 0.00 89 1008.5
20260509003824 47 26 2.0 6.0 0.00 0.00 0.00 89 1008.3
20260509003724 47 25 2.0 6.0 0.00 0.00 0.00 89 1008.3
20260509003603 48 27 2.0 6.0 0.00 0.00 0.00 89 1008.4
20260509003503 48 27 2.0 6.0 0.00 0.00 0.00 89 1008.4
20260509003403 48 27 2.0 6.0 0.00 0.00 0.00 89 1008.4
20260509003303 48 28 2.0 6.0 0.00 0.00 0.00 89 1008.5
20260509003203 48 31 2.0 6.0 0.00 0.00 0.00 89 1008.4
20260509003103 48 30 2.0 4.0 0.00 0.00 0.00 89 1008.3
20260509003003 48 30 2.0 4.0 0.00 0.00 0.00 89 1008.4
20260509002903 48 30 2.0 4.0 0.00 0.00 0.00 89 1008.5
20260509002803 48 30 2.0 4.0 0.00 0.00 0.00 89 1008.4
20260509002704 48 26 2.0 4.0 0.00 0.00 0.00 89 1008.4
20260509002603 48 28 2.0 4.0 0.00 0.00 0.00 89 1008.4
20260509002503 48 28 2.0 4.0 0.00 0.00 0.00 89 1008.3
20260509002403 48 23 2.0 4.0 0.00 0.00 0.00 89 1008.4
20260509002306 48 24 2.0 4.0 0.00 0.00 0.00 89 1008.3
20260509002203 48 22 2.0 4.0 0.00 0.00 0.00 89 1008.4
20260509002103 48 20 2.0 4.0 0.00 0.00 0.00 89 1008.3
20260509002003 48 18 2.0 4.0 0.00 0.00 0.00 89 1008.5
20260509001903 48 19 2.0 4.0 0.00 0.00 0.00 89 1008.4
20260509001803 48 21 2.0 4.0 0.00 0.00 0.00 89 1008.4
20260509001703 48 21 2.0 4.0 0.00 0.00 0.00 89 1008.3
20260509001603 48 23 2.0 4.0 0.00 0.00 0.00 89 1008.1
20260509001503 48 24 2.0 4.0 0.00 0.00 0.00 89 1008.3
20260509001403 48 25 2.0 4.0 0.00 0.00 0.00 89 1008.4
20260509001303 48 25 2.0 4.0 0.00 0.00 0.00 89 1008.4
20260509001203 48 29 2.0 4.0 0.00 0.00 0.00 89 1008.3
20260509001124 48 31 2.0 4.0 0.00 0.00 0.00 89 1008.3
20260509001003 48 35 2.0 4.0 0.00 0.00 0.00 89 1008.3
20260509000924 48 34 2.0 4.0 0.00 0.00 0.00 89 1008.4
20260509000824 48 34 2.0 4.0 0.00 0.00 0.00 89 1008.2
20260509000703 48 34 2.0 4.0 0.00 0.00 0.00 89 1008.4
20260509000624 48 32 2.0 4.0 0.00 0.00 0.00 89 1008.6
20260509000503 48 27 2.0 4.0 0.00 0.00 0.00 89 1008.4
20260509000425 48 28 2.0 4.0 0.00 0.00 0.00 89 1008.3
20260509000304 48 28 2.0 4.0 0.00 0.00 0.00 89 1008.5
20260509000204 48 27 2.0 4.0 0.00 0.00 0.00 89 1008.5
20260509000104 48 22 2.0 4.0 0.00 0.00 0.00 89 1008.5
20260509000003 48 20 2.0 4.0 0.00 0.00 0.00 89 1008.6
20260508235925 48 20 2.0 4.0 0.00 0.00 0.00 89 1008.4
20260508235824 48 18 2.0 4.0 0.00 0.00 0.00 89 1008.5
20260508235703 48 16 2.0 4.0 0.00 0.00 0.00 89 1008.5
20260508235603 48 16 2.0 4.0 0.00 0.00 0.00 89 1008.6
20260508235504 48 17 2.0 4.0 0.00 0.00 0.00 89 1008.4
20260508235403 48 18 2.0 4.0 0.00 0.00 0.00 89 1008.5
20260508235306 48 18 2.0 4.0 0.00 0.00 0.00 89 1008.4
20260508235203 48 17 2.0 4.0 0.00 0.00 0.00 89 1008.6
20260508235103 48 21 2.0 4.0 0.00 0.00 0.00 89 1008.5
20260508235025 48 21 2.0 4.0 0.00 0.00 0.00 89 1008.5
20260508234903 48 25 2.0 4.0 0.00 0.00 0.00 89 1008.7
20260508234825 49 26 2.0 4.0 0.00 0.00 0.00 89 1008.6
20260508234703 49 34 2.0 4.0 0.00 0.00 0.00 89 1008.5
20260508234603 49 39 2.0 4.0 0.00 0.00 0.00 89 1008.5
20260508234503 49 40 2.0 4.0 0.00 0.00 0.00 89 1008.4
20260508234403 49 40 2.0 4.0 0.00 0.00 0.00 89 1008.5
20260508234303 49 43 2.0 4.0 0.00 0.00 0.00 89 1008.4
20260508234224 49 43 2.0 4.0 0.00 0.00 0.00 89 1008.4
20260508234124 49 43 2.0 4.0 0.00 0.00 0.00 89 1008.6
20260508234004 49 40 2.0 6.0 0.00 0.00 0.00 89 1008.3
20260508233903 49 41 2.0 6.0 0.00 0.00 0.00 89 1008.5
20260508233803 49 41 2.0 6.0 0.00 0.00 0.00 89 1008.4
20260508233724 49 44 2.0 6.0 0.00 0.00 0.00 89 1008.5
20260508233603 49 44 2.0 6.0 0.00 0.00 0.00 88 1008.4
20260508233503 49 46 2.0 6.0 0.00 0.00 0.00 88 1008.6
20260508233403 49 47 2.0 6.0 0.00 0.00 0.00 88 1008.5
20260508233324 49 47 2.0 6.0 0.00 0.00 0.00 88 1008.6
20260508233203 49 52 3.0 7.0 0.00 0.00 0.00 88 1008.3
20260508233103 49 54 3.0 7.0 0.00 0.00 0.00 88 1008.4
20260508233024 49 57 3.0 7.0 0.00 0.00 0.00 88 1008.5
20260508232903 49 60 3.0 7.0 0.00 0.00 0.00 88 1008.7
20260508232803 49 64 3.0 7.0 0.00 0.00 0.00 88 1008.3
20260508232725 49 64 3.0 7.0 0.00 0.00 0.00 88 1008.4
20260508232603 49 66 3.0 7.0 0.00 0.00 0.00 89 1008.7
20260508232503 49 66 3.0 7.0 0.00 0.00 0.00 89 1008.4
20260508232403 49 66 3.0 7.0 0.00 0.00 0.00 89 1008.5
20260508232306 49 66 3.0 7.0 0.00 0.00 0.00 88 1008.6
20260508232203 49 64 3.0 7.0 0.00 0.00 0.00 88 1008.6
20260508232103 49 64 3.0 7.0 0.00 0.00 0.00 88 1008.5
20260508232024 49 62 3.0 7.0 0.00 0.00 0.00 88 1008.3
20260508231924 49 61 3.0 7.0 0.00 0.00 0.00 88 1008.4
20260508231803 49 57 2.0 6.0 0.00 0.00 0.00 87 1008.4
20260508231703 49 52 2.0 6.0 0.00 0.00 0.00 87 1008.3
20260508231624 49 51 2.0 6.0 0.00 0.00 0.00 87 1008.5
20260508231525 49 48 2.0 6.0 0.00 0.00 0.00 87 1008.6
20260508231424 49 45 2.0 6.0 0.00 0.00 0.00 87 1008.3
20260508231303 49 40 2.0 6.0 0.00 0.00 0.00 87 1008.4
20260508231203 49 40 2.0 3.0 0.00 0.00 0.00 87 1008.5
20260508231103 49 38 2.0 3.0 0.00 0.00 0.00 87 1008.4
20260508231003 49 40 2.0 3.0 0.00 0.00 0.00 87 1008.4
20260508230903 49 42 2.0 3.0 0.00 0.00 0.00 87 1008.6
20260508230803 49 44 2.0 3.0 0.00 0.00 0.00 87 1008.5
20260508230703 49 44 2.0 3.0 0.00 0.00 0.00 87 1008.5
20260508230603 49 43 2.0 3.0 0.00 0.00 0.00 87 1008.2
20260508230524 49 47 2.0 3.0 0.00 0.00 0.00 87 1008.4
20260508230403 49 48 2.0 3.0 0.00 0.00 0.00 87 1008.4
20260508230303 49 51 2.0 3.0 0.00 0.00 0.00 87 1008.5
20260508230203 49 49 2.0 3.0 0.00 0.00 0.00 87 1008.5
20260508230103 49 47 2.0 3.0 0.00 0.00 0.00 87 1008.5
20260508230003 49 45 2.0 3.0 0.00 0.00 0.00 88 1008.4
20260508225924 49 42 2.0 3.0 0.00 0.00 0.00 88 1008.3
20260508225824 49 40 2.0 3.0 0.00 0.00 0.00 88 1008.4
20260508225724 49 40 2.0 3.0 0.00 0.00 0.00 88 1008.5
20260508225603 49 42 2.0 3.0 0.00 0.00 0.00 88 1008.3
20260508225524 49 40 1.0 3.0 0.00 0.00 0.00 88 1008.4
20260508225424 49 37 2.0 3.0 0.00 0.00 0.00 88 1008.3
20260508225324 50 34 1.0 3.0 0.00 0.00 0.00 88 1008.5
20260508225224 50 29 1.0 3.0 0.00 0.00 0.00 88 1008.2
20260508225103 50 32 1.0 4.0 0.00 0.00 0.00 88 1008.5
20260508225003 50 30 1.0 4.0 0.00 0.00 0.00 88 1008.3
20260508224903 50 29 1.0 4.0 0.00 0.00 0.00 88 1008.4
20260508224803 50 27 1.0 4.0 0.00 0.00 0.00 89 1008.4
20260508224703 50 25 1.0 4.0 0.00 0.00 0.00 89 1008.3
20260508224603 50 21 1.0 4.0 0.00 0.00 0.00 89 1008.4
20260508224503 50 20 1.0 4.0 0.00 0.00 0.00 89 1008.2
20260508224403 50 19 1.0 4.0 0.00 0.00 0.00 89 1008.4
20260508224303 50 17 1.0 4.0 0.00 0.00 0.00 89 1008.3
20260508224203 50 17 1.0 4.0 0.00 0.00 0.00 89 1008.3
20260508224103 50 15 1.0 4.0 0.00 0.00 0.00 89 1008.2
20260508224024 50 12 1.0 4.0 0.00 0.00 0.00 90 1008.5
20260508223903 50 12 1.0 4.0 0.00 0.00 0.00 90 1008.5
20260508223803 50 11 1.0 4.0 0.00 0.00 0.00 90 1008.5
20260508223703 50 8 1.0 4.0 0.00 0.00 0.00 91 1008.3
20260508223603 50 8 1.0 3.0 0.00 0.00 0.00 91 1008.4
20260508223504 50 8 1.0 3.0 0.00 0.00 0.00 91 1008.2
20260508223424 50 7 1.0 3.0 0.00 0.00 0.00 91 1008.3
20260508223303 50 6 2.0 3.0 0.00 0.00 0.00 91 1008.5
20260508223203 50 5 2.0 3.0 0.00 0.00 0.00 91 1008.2
20260508223103 50 5 2.0 3.0 0.00 0.00 0.00 92 1008.4
20260508223003 50 5 1.0 3.0 0.00 0.00 0.00 92 1008.3
20260508222903 50 5 1.0 3.0 0.00 0.00 0.00 92 1008.1
20260508222824 50 5 1.0 3.0 0.00 0.00 0.00 92 1008.4
20260508222724 50 4 1.0 3.0 0.00 0.00 0.00 92 1008.3
20260508222603 50 3 1.0 3.0 0.00 0.00 0.00 92 1008.4
20260508222503 50 3 1.0 3.0 0.00 0.00 0.00 92 1008.3
20260508222403 50 1 1.0 3.0 0.00 0.00 0.00 92 1008.4
20260508222324 50 1 1.0 3.0 0.00 0.00 0.00 92 1008.2
20260508222203 50 1 1.0 3.0 0.00 0.00 0.00 92 1008.4
20260508222103 50 1 1.0 2.0 0.00 0.00 0.00 92 1008.4
20260508222003 50 1 1.0 2.0 0.00 0.00 0.00 92 1008.5
20260508221903 50 1 1.0 2.0 0.00 0.00 0.00 92 1008.3
20260508221803 50 2 1.0 2.0 0.00 0.00 0.00 92 1008.5
20260508221703 50 3 1.0 2.0 0.00 0.00 0.00 92 1008.4
20260508221624 50 4 1.0 2.0 0.00 0.00 0.00 92 1008.4
20260508221503 50 3 1.0 2.0 0.00 0.00 0.00 92 1008.2
20260508221403 50 5 1.0 2.0 0.00 0.00 0.00 92 1008.3
20260508221324 50 6 1.0 2.0 0.00 0.00 0.00 91 1008.0
20260508221203 51 7 1.0 2.0 0.00 0.00 0.00 91 1008.3
20260508221103 51 9 1.0 2.0 0.00 0.00 0.00 91 1008.3
20260508221003 51 11 1.0 2.0 0.00 0.00 0.00 91 1008.3
20260508220903 51 10 1.0 2.0 0.00 0.00 0.00 91 1008.0
20260508220824 51 10 1.0 2.0 0.00 0.00 0.00 91 1008.3
20260508220703 51 10 1.0 2.0 0.00 0.00 0.00 91 1008.3
20260508220603 51 10 1.0 2.0 0.00 0.00 0.00 91 1008.3
20260508220503 51 10 1.0 2.0 0.00 0.00 0.00 91 1008.2
20260508220403 51 10 1.0 2.0 0.00 0.00 0.00 91 1008.2
20260508220303 51 11 1.0 2.0 0.00 0.00 0.00 90 1008.3
20260508220203 51 11 1.0 2.0 0.00 0.00 0.00 90 1008.2
20260508220124 51 12 1.0 2.0 0.00 0.00 0.00 90 1008.2
20260508220024 51 11 1.0 2.0 0.00 0.00 0.00 90 1008.2
20260508215903 51 13 1.0 2.0 0.00 0.00 0.00 90 1008.1
20260508215803 51 13 1.0 2.0 0.00 0.00 0.00 90 1008.0
20260508215703 51 13 1.0 2.0 0.00 0.00 0.00 90 1008.1
20260508215603 51 13 1.0 2.0 0.00 0.00 0.00 90 1008.0
20260508215503 51 13 1.0 2.0 0.00 0.00 0.00 90 1008.1
20260508215403 51 14 1.0 2.0 0.00 0.00 0.00 90 1008.1
20260508215306 51 14 1.0 2.0 0.00 0.00 0.00 90 1008.0
20260508215203 51 14 0.0 2.0 0.00 0.00 0.00 91 1008.0
20260508215124 51 14 0.0 2.0 0.00 0.00 0.00 91 1008.0
20260508215003 50 14 0.0 1.0 0.00 0.00 0.00 91 1008.0
20260508214903 50 14 0.0 1.0 0.00 0.00 0.00 91 1007.8
20260508214824 50 14 0.0 1.0 0.00 0.00 0.00 91 1007.8
20260508214724 50 14 0.0 1.0 0.00 0.00 0.00 92 1007.9
20260508214603 50 14 0.0 2.0 0.00 0.00 0.00 92 1008.0
20260508214503 50 14 0.0 2.0 0.00 0.00 0.00 92 1008.1
20260508214403 50 14 0.0 2.0 0.00 0.00 0.00 92 1008.1
20260508214303 50 14 0.0 2.0 0.00 0.00 0.00 92 1008.0
20260508214203 50 14 1.0 2.0 0.00 0.00 0.00 92 1008.1
20260508214124 50 14 1.0 2.0 0.00 0.00 0.00 92 1008.1
20260508214003 50 14 1.0 2.0 0.00 0.00 0.00 92 1008.1
20260508213903 50 14 1.0 2.0 0.00 0.00 0.00 93 1008.1
20260508213824 50 14 1.0 2.0 0.00 0.00 0.00 93 1008.3
20260508213703 50 14 1.0 2.0 0.00 0.00 0.00 93 1008.2
20260508213603 50 14 1.0 2.0 0.00 0.00 0.00 93 1008.0
20260508213503 49 14 0.0 2.0 0.00 0.00 0.00 93 1008.1
20260508213403 49 14 0.0 2.0 0.00 0.00 0.00 94 1007.9
20260508213324 49 14 0.0 2.0 0.00 0.00 0.00 94 1008.1
20260508213203 50 14 0.0 1.0 0.00 0.00 0.00 94 1007.9
20260508213103 50 14 0.0 2.0 0.00 0.00 0.00 94 1007.9
20260508213003 50 14 0.0 2.0 0.00 0.00 0.00 94 1008.0
20260508212903 50 14 0.0 2.0 0.00 0.00 0.00 94 1008.0
20260508212803 50 14 1.0 2.0 0.00 0.00 0.00 94 1008.0
20260508212703 50 14 1.0 2.0 0.00 0.00 0.00 94 1007.9
20260508212603 50 14 1.0 2.0 0.00 0.00 0.00 94 1007.9
20260508212503 50 14 1.0 2.0 0.00 0.00 0.00 94 1007.8
20260508212403 50 14 1.0 2.0 0.00 0.00 0.00 94 1007.9
20260508212306 50 14 1.0 2.0 0.00 0.00 0.00 94 1007.9
20260508212203 50 14 1.0 2.0 0.00 0.00 0.00 94 1008.0
20260508212103 50 13 1.0 2.0 0.00 0.00 0.00 94 1007.9
20260508212003 50 12 1.0 2.0 0.00 0.00 0.00 94 1008.0
20260508211903 50 11 1.0 2.0 0.00 0.00 0.00 94 1008.0
20260508211803 50 11 1.0 2.0 0.00 0.00 0.00 94 1007.8
20260508211704 50 10 1.0 2.0 0.00 0.00 0.00 94 1008.0
20260508211604 50 9 1.0 2.0 0.00 0.00 0.00 94 1008.0
20260508211525 50 8 1.0 2.0 0.00 0.00 0.00 93 1008.0
20260508211404 50 6 1.0 2.0 0.00 0.00 0.00 93 1007.8
20260508211304 50 5 1.0 2.0 0.00 0.00 0.00 93 1008.0
20260508211204 50 4 1.0 2.0 0.00 0.00 0.00 93 1007.9
20260508211104 50 3 1.0 2.0 0.00 0.00 0.00 92 1008.0
20260508211004 50 2 1.0 2.0 0.00 0.00 0.00 92 1007.9
20260508210925 50 2 1.0 2.0 0.00 0.00 0.00 92 1007.9
20260508210804 50 1 1.0 2.0 0.00 0.00 0.00 91 1007.9
20260508210704 50 360 1.0 2.0 0.00 0.00 0.00 91 1008.0
20260508210605 50 358 1.0 2.0 0.00 0.00 0.00 90 1007.9
20260508210504 50 358 1.0 2.0 0.00 0.00 0.00 89 1007.8
20260508210404 50 358 0.0 1.0 0.00 0.00 0.00 89 1007.9
20260508210305 51 358 0.0 1.0 0.00 0.00 0.00 88 1007.9
20260508210204 51 358 0.0 1.0 0.00 0.00 0.00 88 1007.8
20260508210105 51 358 0.0 1.0 0.00 0.00 0.00 88 1007.9
20260508210025 51 358 0.0 1.0 0.00 0.00 0.00 88 1007.9
20260508205904 51 358 0.0 2.0 0.00 0.00 0.00 88 1007.7
20260508205825 51 358 0.0 2.0 0.00 0.00 0.00 88 1008.0
20260508205725 51 358 0.0 2.0 0.00 0.00 0.00 88 1008.0
20260508205626 51 358 1.0 2.0 0.00 0.00 0.00 88 1008.0
20260508205504 51 358 1.0 2.0 0.00 0.00 0.00 88 1007.9
20260508205404 51 358 1.0 2.0 0.00 0.00 0.00 88 1007.7
20260508205325 51 358 1.0 2.0 0.00 0.00 0.00 88 1007.9
20260508205225 51 358 1.0 2.0 0.00 0.00 0.00 87 1007.6
20260508205105 51 358 1.0 2.0 0.00 0.00 0.00 87 1007.9
20260508205004 51 358 1.0 2.0 0.00 0.00 0.00 86 1007.9
20260508204904 51 358 1.0 2.0 0.00 0.00 0.00 86 1007.8
20260508204804 51 358 1.0 2.0 0.00 0.00 0.00 85 1007.6
20260508204704 51 358 0.0 2.0 0.00 0.00 0.00 85 1007.6
20260508204604 52 358 0.0 2.0 0.00 0.00 0.00 84 1007.7
20260508204525 52 358 0.0 2.0 0.00 0.00 0.00 84 1007.6
20260508204404 52 358 1.0 2.0 0.00 0.00 0.00 84 1007.8
20260508204304 52 358 1.0 2.0 0.00 0.00 0.00 84 1007.7
20260508204226 52 358 1.0 2.0 0.00 0.00 0.00 84 1007.9
20260508204104 52 358 1.0 2.0 0.00 0.00 0.00 84 1007.8
20260508204026 52 358 1.0 2.0 0.00 0.00 0.00 84 1007.7
20260508203904 52 359 1.0 2.0 0.00 0.00 0.00 84 1007.7
20260508203804 52 359 1.0 2.0 0.00 0.00 0.00 84 1007.7
20260508203704 52 1 1.0 2.0 0.00 0.00 0.00 84 1007.6
20260508203604 52 2 1.0 2.0 0.00 0.00 0.00 83 1007.8
20260508203504 52 3 1.0 2.0 0.00 0.00 0.00 83 1007.5
20260508203404 52 4 1.0 2.0 0.00 0.00 0.00 83 1007.6
20260508203305 52 5 1.0 2.0 0.00 0.00 0.00 83 1007.5
20260508203204 52 6 1.0 2.0 0.00 0.00 0.00 83 1007.8
20260508203105 52 8 1.0 2.0 0.00 0.00 0.00 83 1007.5
20260508203004 52 9 0.0 2.0 0.00 0.00 0.00 83 1007.6
20260508202925 52 10 0.0 2.0 0.00 0.00 0.00 83 1007.5
20260508202804 52 11 0.0 2.0 0.00 0.00 0.00 83 1007.6
20260508202704 52 11 0.0 2.0 0.00 0.00 0.00 83 1007.6
20260508202626 52 11 0.0 2.0 0.00 0.00 0.00 83 1007.6
20260508202504 52 10 0.0 2.0 0.00 0.00 0.00 83 1007.6
20260508202405 52 10 0.0 2.0 0.00 0.00 0.00 83 1007.5
20260508202307 52 9 0.0 2.0 0.00 0.00 0.00 83 1007.6
20260508202204 52 9 1.0 2.0 0.00 0.00 0.00 83 1007.5
20260508202104 52 9 1.0 2.0 0.00 0.00 0.00 83 1007.6
20260508202004 52 8 1.0 2.0 0.00 0.00 0.00 83 1007.6
20260508201904 52 8 1.0 2.0 0.00 0.00 0.00 83 1007.6
20260508201825 52 7 1.0 2.0 0.00 0.00 0.00 83 1007.6
20260508201726 52 6 1.0 2.0 0.00 0.00 0.00 83 1007.6
20260508201604 52 5 1.0 2.0 0.00 0.00 0.00 83 1007.6
20260508201505 52 5 1.0 2.0 0.00 0.00 0.00 83 1007.5
20260508201404 52 4 1.0 2.0 0.00 0.00 0.00 83 1007.5
20260508201305 52 4 1.0 2.0 0.00 0.00 0.00 83 1007.6
20260508201225 52 3 1.0 2.0 0.00 0.00 0.00 83 1007.5
20260508201104 52 3 1.0 2.0 0.00 0.00 0.00 83 1007.4
20260508201004 52 3 1.0 2.0 0.00 0.00 0.00 83 1007.6
20260508200905 52 4 1.0 2.0 0.00 0.00 0.00 83 1007.5
20260508200804 52 5 1.0 2.0 0.00 0.00 0.00 83 1007.4
20260508200704 52 6 1.0 2.0 0.00 0.00 0.00 84 1007.7
20260508200604 52 6 1.0 2.0 0.00 0.00 0.00 84 1007.3
20260508200504 52 6 1.0 2.0 0.00 0.00 0.00 84 1007.4
20260508200404 52 6 1.0 2.0 0.00 0.00 0.00 84 1007.5
20260508200304 52 6 0.0 2.0 0.00 0.00 0.00 85 1007.4
20260508200225 51 6 0.0 2.0 0.00 0.00 0.00 85 1007.4
20260508200104 51 6 0.0 2.0 0.00 0.00 0.00 85 1007.6
20260508200005 51 6 0.0 2.0 0.00 0.00 0.00 86 1007.1
20260508195904 52 0 0.0 0.0 0.00 0.00 0.00 86 1007.4
20260508195804 52 0 0.0 0.0 0.00 0.00 0.00 86 1007.5
20260508195704 52 0 0.0 0.0 0.00 0.00 0.00 86 1007.1
20260508195604 52 0 0.0 0.0 0.00 0.00 0.00 87 1007.1
20260508195505 51 357 0.0 1.0 0.00 0.00 0.00 87 1007.4
20260508195404 51 357 0.0 1.0 0.00 0.00 0.00 87 1007.2
20260508195306 52 357 0.0 1.0 0.00 0.00 0.00 87 1007.4
20260508195204 52 357 0.0 1.0 0.00 0.00 0.00 87 1007.3
20260508195104 52 357 0.0 1.0 0.00 0.00 0.00 87 1007.5
20260508195005 51 357 0.0 1.0 0.00 0.00 0.00 87 1007.3
20260508194904 51 357 0.0 1.0 0.00 0.00 0.00 87 1007.3
20260508194805 51 357 0.0 1.0 0.00 0.00 0.00 87 1007.4
20260508194725 51 357 0.0 1.0 0.00 0.00 0.00 87 1007.4
20260508194626 51 357 0.0 1.0 0.00 0.00 0.00 87 1007.2
20260508194504 51 358 0.0 1.0 0.00 0.00 0.00 87 1007.2
20260508194405 51 358 0.0 1.0 0.00 0.00 0.00 87 1007.4
20260508194304 51 359 0.0 1.0 0.00 0.00 0.00 87 1007.5
20260508194204 51 359 0.0 1.0 0.00 0.00 0.00 87 1007.4
20260508194004 51 359 0.0 1.0 0.00 0.00 0.00 87 1007.3
20260508193904 51 359 0.0 1.0 0.00 0.00 0.00 86 1007.3
20260508193804 51 359 0.0 1.0 0.00 0.00 0.00 86 1007.2
20260508193704 51 359 0.0 1.0 0.00 0.00 0.00 86 1007.0
20260508193605 51 359 0.0 1.0 0.00 0.00 0.00 86 1007.4
20260508193504 51 359 0.0 1.0 0.00 0.00 0.00 86 1007.3
20260508193405 51 359 0.0 1.0 0.00 0.00 0.00 86 1007.0
20260508193304 51 359 0.0 1.0 0.00 0.00 0.00 86 1007.1
20260508193225 51 359 0.0 1.0 0.00 0.00 0.00 86 1007.2
20260508193125 51 359 0.0 1.0 0.00 0.00 0.00 85 1007.0
20260508193004 51 359 0.0 4.0 0.00 0.00 0.00 85 1007.1
20260508192904 52 359 0.0 4.0 0.00 0.00 0.00 85 1007.3
20260508192804 52 2 0.0 4.0 0.00 0.00 0.00 85 1007.2
20260508192704 52 3 0.0 4.0 0.00 0.00 0.00 84 1007.0
20260508192604 52 4 1.0 4.0 0.00 0.00 0.00 84 1007.1
20260508192504 52 4 1.0 4.0 0.00 0.00 0.00 84 1007.3
20260508192404 52 4 1.0 4.0 0.00 0.00 0.00 84 1007.1
20260508192306 52 5 1.0 4.0 0.00 0.00 0.00 84 1007.1
20260508192204 52 6 1.0 4.0 0.00 0.00 0.00 84 1006.9
20260508192125 52 7 1.0 4.0 0.00 0.00 0.00 84 1007.2
20260508192004 52 9 1.0 4.0 0.00 0.00 0.00 84 1007.0
20260508191904 52 10 1.0 4.0 0.00 0.00 0.00 84 1007.0
20260508191804 52 8 1.0 3.0 0.00 0.00 0.00 83 1007.1
20260508191725 52 6 1.0 3.0 0.00 0.00 0.00 83 1007.0
20260508191604 52 355 1.0 4.0 0.00 0.00 0.00 83 1006.9
20260508191504 52 359 1.0 4.0 0.00 0.00 0.00 83 1007.0
20260508191404 52 360 1.0 4.0 0.00 0.00 0.00 83 1006.9
20260508191304 52 360 1.0 4.0 0.00 0.00 0.00 83 1006.9
20260508191204 53 1 1.0 4.0 0.00 0.00 0.00 83 1006.8
20260508191125 53 1 1.0 4.0 0.00 0.00 0.00 83 1006.8
20260508191004 53 359 1.0 4.0 0.00 0.00 0.00 82 1006.9
20260508190904 53 360 1.0 4.0 0.00 0.00 0.00 82 1006.9
20260508190804 53 2 2.0 4.0 0.00 0.00 0.00 82 1007.0
20260508190704 53 5 2.0 4.0 0.00 0.00 0.00 82 1006.9
20260508190604 53 9 2.0 4.0 0.00 0.00 0.00 82 1007.2
20260508190504 53 8 2.0 4.0 0.00 0.00 0.00 82 1006.9
20260508190425 53 9 2.0 4.0 0.00 0.00 0.00 82 1006.8
20260508190304 53 9 1.0 4.0 0.00 0.00 0.00 82 1006.7
20260508190204 53 9 2.0 4.0 0.00 0.00 0.00 82 1006.9
20260508190125 53 10 2.0 4.0 0.00 0.00 0.00 81 1006.9
20260508190025 53 10 2.0 4.0 0.00 0.00 0.00 81 1006.9
20260508185925 53 10 2.0 4.0 0.00 0.00 0.00 82 1006.9
20260508185805 54 9 2.0 4.0 0.00 0.00 0.00 82 1006.8
20260508185704 54 8 2.0 4.0 0.00 0.00 0.00 83 1006.9
20260508185604 54 6 2.0 4.0 0.00 0.00 0.00 83 1006.9
20260508185504 54 4 2.0 4.0 0.00 0.00 0.00 83 1006.8
20260508185404 54 360 2.0 4.0 0.00 0.00 0.00 82 1006.9
20260508185306 54 349 1.0 4.0 0.00 0.00 0.00 82 1006.9
20260508185204 54 337 1.0 4.0 0.00 0.00 0.00 81 1006.9
20260508185104 54 324 1.0 3.0 0.00 0.00 0.00 81 1007.0
20260508185004 54 314 1.0 3.0 0.00 0.00 0.00 80 1006.8
20260508184904 54 306 1.0 3.0 0.00 0.00 0.00 80 1006.8
20260508184805 54 300 1.0 3.0 0.00 0.00 0.00 80 1006.6
20260508184705 54 294 1.0 3.0 0.00 0.00 0.00 79 1006.8
20260508184625 54 293 1.0 3.0 0.00 0.00 0.00 79 1006.6
20260508184504 54 292 1.0 3.0 0.00 0.00 0.00 79 1006.7
20260508184404 54 291 2.0 3.0 0.00 0.00 0.00 79 1006.8
20260508184304 54 291 2.0 3.0 0.00 0.00 0.00 79 1006.8
20260508184204 54 292 1.0 3.0 0.00 0.00 0.00 79 1007.0
20260508184104 54 292 1.0 3.0 0.00 0.00 0.00 79 1006.6
20260508184004 54 292 1.0 3.0 0.00 0.00 0.00 78 1006.6
20260508183904 54 292 1.0 3.0 0.00 0.00 0.00 78 1006.7
20260508183804 54 291 1.0 3.0 0.00 0.00 0.00 78 1006.5
20260508183704 54 291 1.0 3.0 0.00 0.00 0.00 78 1006.8
20260508183604 54 290 1.0 2.0 0.00 0.00 0.00 77 1006.6
20260508183504 54 289 1.0 2.0 0.00 0.00 0.00 76 1006.6
20260508183425 54 288 1.0 2.0 0.00 0.00 0.00 76 1006.7
20260508183304 54 287 1.0 2.0 0.00 0.00 0.00 77 1006.3
20260508183204 54 286 1.0 2.0 0.00 0.00 0.00 77 1006.5
20260508183104 54 284 1.0 3.0 0.00 0.00 0.00 78 1006.4
20260508183004 54 285 1.0 3.0 0.00 0.00 0.00 78 1006.5
20260508182925 54 285 1.0 3.0 0.00 0.00 0.00 78 1006.7
20260508182804 54 285 1.0 3.0 0.00 0.00 0.00 78 1006.6
20260508182726 54 285 1.0 3.0 0.00 0.00 0.00 78 1006.5
20260508182604 54 285 1.0 3.0 0.00 0.00 0.00 78 1006.5
20260508182505 54 285 1.0 3.0 0.00 0.00 0.00 79 1006.5
20260508182404 54 285 1.0 3.0 0.00 0.00 0.00 80 1006.5
20260508182306 55 286 1.0 3.0 0.00 0.00 0.00 79 1006.4
20260508182204 55 286 1.0 3.0 0.00 0.00 0.00 78 1006.4
20260508182125 55 286 1.0 3.0 0.00 0.00 0.00 79 1006.4
20260508182004 55 286 2.0 3.0 0.00 0.00 0.00 79 1006.5
20260508181904 55 286 2.0 3.0 0.00 0.00 0.00 80 1006.4
20260508181825 55 287 2.0 3.0 0.00 0.00 0.00 80 1006.5
20260508181704 55 288 2.0 3.0 0.00 0.00 0.00 79 1006.6
20260508181625 55 289 2.0 3.0 0.00 0.00 0.00 80 1006.5
20260508181504 55 288 2.0 3.0 0.00 0.00 0.00 80 1006.5
20260508181404 55 288 2.0 3.0 0.00 0.00 0.00 80 1006.4
20260508181304 55 288 2.0 3.0 0.00 0.00 0.00 80 1006.5
20260508181204 54 289 2.0 3.0 0.00 0.00 0.00 79 1006.2
20260508181104 54 289 2.0 3.0 0.00 0.00 0.00 79 1006.6
20260508181004 54 290 2.0 3.0 0.00 0.00 0.00 80 1006.5
20260508180904 55 289 2.0 3.0 0.00 0.00 0.00 79 1006.5
20260508180825 55 289 2.0 3.0 0.00 0.00 0.00 79 1006.4
20260508180705 55 289 2.0 3.0 0.00 0.00 0.00 80 1006.5
20260508180604 55 289 2.0 3.0 0.00 0.00 0.00 80 1006.5
20260508180525 55 289 2.0 3.0 0.00 0.00 0.00 80 1006.3
20260508180404 55 290 2.0 3.0 0.00 0.00 0.00 79 1006.4
20260508180304 55 290 2.0 3.0 0.00 0.00 0.00 79 1006.6
20260508180204 54 290 2.0 3.0 0.00 0.00 0.00 79 1006.3
20260508180104 55 290 2.0 3.0 0.00 0.00 0.00 78 1006.5
20260508180025 55 290 2.0 3.0 0.00 0.00 0.00 78 1006.3
20260508175904 55 290 2.0 3.0 0.00 0.00 0.00 77 1006.4
20260508175805 55 294 2.0 3.0 0.00 0.00 0.00 77 1006.5
20260508175725 55 297 2.0 3.0 0.00 0.00 0.00 77 1006.7
20260508175604 55 302 2.0 3.0 0.00 0.00 0.00 78 1006.4
20260508175504 55 302 2.0 3.0 0.00 0.00 0.00 78 1006.3
20260508175404 55 301 2.0 3.0 0.00 0.00 0.00 77 1006.2
20260508175306 55 301 1.0 3.0 0.00 0.00 0.00 77 1006.3
20260508175204 56 300 1.0 3.0 0.00 0.00 0.00 77 1006.4
20260508175104 56 300 1.0 3.0 0.00 0.00 0.00 76 1006.4
20260508175004 56 303 1.0 3.0 0.00 0.00 0.00 76 1006.4
20260508174904 56 310 1.0 3.0 0.00 0.00 0.00 76 1006.4
20260508174804 56 306 1.0 3.0 0.00 0.00 0.00 75 1006.3
20260508174725 56 301 1.0 4.0 0.00 0.00 0.00 75 1006.3
20260508174604 56 294 1.0 4.0 0.00 0.00 0.00 75 1006.3
20260508174504 56 295 1.0 4.0 0.00 0.00 0.00 74 1006.2
20260508174404 56 293 2.0 4.0 0.00 0.00 0.00 78 1006.5
20260508174305 56 291 2.0 4.0 0.00 0.00 0.00 78 1006.2
20260508174204 56 291 2.0 4.0 0.00 0.00 0.00 77 1006.4
20260508174104 56 290 2.0 4.0 0.00 0.00 0.00 77 1006.4
20260508174004 56 287 2.0 4.0 0.00 0.00 0.00 77 1006.2
20260508173904 55 283 2.0 4.0 0.00 0.00 0.00 77 1006.1
20260508173804 55 281 2.0 4.0 0.00 0.00 0.00 77 1006.2
20260508173704 55 281 2.0 4.0 0.00 0.00 0.00 77 1006.3
20260508173604 55 283 2.0 4.0 0.00 0.00 0.00 77 1006.3
20260508173504 55 281 2.0 4.0 0.00 0.00 0.00 78 1006.4
20260508173404 55 283 2.0 4.0 0.00 0.00 0.00 77 1006.3
20260508173304 55 284 2.0 4.0 0.00 0.00 0.00 76 1006.0
20260508173204 55 284 2.0 4.0 0.00 0.00 0.00 76 1006.2
20260508173104 55 286 2.0 4.0 0.00 0.00 0.00 76 1006.1
20260508173004 55 288 2.0 4.0 0.00 0.00 0.00 76 1006.2
20260508172904 55 289 2.0 4.0 0.00 0.00 0.00 76 1006.0
20260508172825 55 289 3.0 4.0 0.00 0.00 0.00 76 1006.1
20260508172704 55 289 3.0 4.0 0.00 0.00 0.00 77 1005.9
20260508172604 55 288 3.0 4.0 0.00 0.00 0.00 77 1006.2
20260508172504 55 288 3.0 4.0 0.00 0.00 0.00 77 1005.9
20260508172404 55 288 3.0 4.0 0.00 0.00 0.00 78 1006.2
20260508172307 55 288 3.0 4.0 0.00 0.00 0.00 79 1006.2
20260508172204 55 288 3.0 4.0 0.00 0.00 0.00 78 1006.1
20260508172104 55 287 3.0 4.0 0.00 0.00 0.00 78 1006.3
20260508172004 55 287 3.0 4.0 0.00 0.00 0.00 78 1006.2
20260508171904 55 287 3.0 4.0 0.00 0.00 0.00 78 1006.3
20260508171825 55 287 3.0 4.0 0.00 0.00 0.00 78 1006.2
20260508171704 55 285 3.0 4.0 0.00 0.00 0.00 78 1006.3
20260508171625 55 286 3.0 4.0 0.00 0.00 0.00 77 1006.3
20260508171504 55 285 3.0 4.0 0.00 0.00 0.00 79 1006.1
20260508171404 54 285 3.0 4.0 0.00 0.00 0.00 79 1006.2
20260508171304 54 286 3.0 4.0 0.00 0.00 0.00 80 1006.1
20260508171204 54 286 3.0 4.0 0.00 0.00 0.00 80 1006.4
20260508171125 55 286 3.0 6.0 0.00 0.00 0.00 80 1006.1
20260508171005 55 284 3.0 6.0 0.00 0.00 0.00 80 1006.2
20260508170904 55 283 3.0 6.0 0.00 0.00 0.00 80 1006.1
20260508170804 55 281 3.0 6.0 0.00 0.00 0.00 81 1006.0
20260508170725 55 282 2.0 6.0 0.00 0.00 0.00 81 1006.1
20260508170604 55 280 3.0 6.0 0.00 0.00 0.00 82 1006.1
20260508170504 55 280 3.0 6.0 0.00 0.00 0.00 81 1006.0
20260508170404 54 281 3.0 6.0 0.00 0.00 0.00 82 1006.0
20260508170304 54 280 3.0 6.0 0.00 0.00 0.00 82 1006.1
20260508170204 54 280 3.0 6.0 0.00 0.00 0.00 81 1006.0
20260508170104 54 280 3.0 6.0 0.00 0.00 0.00 82 1005.9
20260508170005 54 280 3.0 6.0 0.00 0.00 0.00 81 1006.2
20260508165904 54 280 3.0 6.0 0.00 0.00 0.00 81 1006.0
20260508165804 54 280 3.0 6.0 0.00 0.00 0.00 80 1005.9
20260508165704 54 281 3.0 6.0 0.00 0.00 0.00 81 1006.0
20260508165604 54 282 3.0 6.0 0.00 0.00 0.00 81 1005.8
20260508165504 54 283 3.0 6.0 0.00 0.00 0.00 81 1006.1
20260508165404 54 283 3.0 6.0 0.00 0.00 0.00 82 1006.1
20260508165306 54 284 3.0 6.0 0.00 0.00 0.00 82 1005.9
20260508165225 55 283 3.0 6.0 0.00 0.00 0.00 81 1006.2
20260508165104 55 284 2.0 6.0 0.00 0.00 0.00 81 1006.1
20260508165005 55 285 2.0 6.0 0.00 0.00 0.00 81 1005.9
20260508164904 55 291 2.0 4.0 0.00 0.00 0.00 81 1006.1
20260508164825 56 293 2.0 4.0 0.00 0.00 0.00 81 1006.1
20260508164725 56 296 2.0 4.0 0.00 0.00 0.00 80 1006.1
20260508164625 56 299 2.0 4.0 0.00 0.00 0.00 79 1006.1
20260508164504 56 296 2.0 6.0 0.00 0.00 0.00 79 1006.1
20260508164404 56 298 2.0 6.0 0.00 0.00 0.00 78 1006.0
20260508164304 56 301 2.0 6.0 0.00 0.00 0.00 78 1006.1
20260508164225 56 301 1.0 6.0 0.00 0.00 0.00 79 1006.1
20260508164125 56 311 1.0 6.0 0.00 0.00 0.00 80 1005.9
20260508164004 56 311 1.0 6.0 0.00 0.00 0.00 80 1006.0
20260508163904 56 304 2.0 6.0 0.00 0.00 0.00 80 1005.9
20260508163804 56 302 2.0 6.0 0.00 0.00 0.00 80 1006.0
20260508163704 56 300 2.0 6.0 0.00 0.00 0.00 80 1005.8
20260508163604 56 300 2.0 6.0 0.00 0.00 0.00 80 1006.0
20260508163504 56 302 2.0 6.0 0.00 0.00 0.00 79 1006.0
20260508163404 56 302 2.0 6.0 0.00 0.00 0.00 80 1006.0
20260508163304 56 302 2.0 6.0 0.00 0.00 0.00 81 1005.8
20260508163225 56 305 2.0 6.0 0.00 0.00 0.00 81 1006.1
20260508163104 56 299 2.0 6.0 0.00 0.00 0.00 82 1006.0
20260508163004 56 298 2.0 6.0 0.00 0.00 0.00 81 1005.9
20260508162904 56 299 2.0 6.0 0.00 0.00 0.00 81 1005.8
20260508162804 56 300 2.0 6.0 0.00 0.00 0.00 80 1006.0
20260508162704 56 300 2.0 6.0 0.00 0.00 0.00 79 1005.9
20260508162604 56 306 2.0 6.0 0.00 0.00 0.00 80 1005.9
20260508162504 56 311 2.0 6.0 0.00 0.00 0.00 81 1005.9
20260508162404 56 316 2.0 6.0 0.00 0.00 0.00 81 1005.9
20260508162306 55 308 2.0 6.0 0.00 0.00 0.00 80 1005.9
20260508162204 55 305 2.0 6.0 0.00 0.00 0.00 81 1005.8
20260508162104 56 311 2.0 6.0 0.00 0.00 0.00 81 1005.8
20260508162004 56 321 2.0 6.0 0.00 0.00 0.00 80 1005.9
20260508161905 56 332 2.0 4.0 0.00 0.00 0.00 80 1005.9
20260508161804 56 336 2.0 4.0 0.00 0.00 0.00 79 1005.9
20260508161704 56 336 2.0 4.0 0.00 0.00 0.00 80 1006.1
20260508161604 56 317 2.0 6.0 0.00 0.00 0.00 79 1006.0
20260508161504 56 302 2.0 6.0 0.00 0.00 0.00 79 1005.9
20260508161404 56 294 2.0 8.0 0.00 0.00 0.00 79 1005.9
20260508161325 56 292 2.0 8.0 0.00 0.00 0.00 79 1006.0
20260508161204 56 300 2.0 8.0 0.00 0.00 0.00 78 1005.9
20260508161104 56 302 2.0 8.0 0.00 0.00 0.00 79 1006.0
20260508161004 56 293 2.0 8.0 0.00 0.00 0.00 79 1006.0
20260508160904 56 287 2.0 8.0 0.00 0.00 0.00 80 1006.1
20260508160804 56 284 3.0 8.0 0.00 0.00 0.00 80 1006.0
20260508160704 55 284 3.0 8.0 0.00 0.00 0.00 81 1006.0
20260508160604 55 287 3.0 8.0 0.00 0.00 0.00 82 1006.1
20260508160525 55 287 3.0 8.0 0.00 0.00 0.00 81 1006.1
20260508160404 55 285 3.0 8.0 0.00 0.00 0.00 81 1006.0
20260508160304 55 288 3.0 7.0 0.00 0.00 0.00 80 1005.9
20260508160204 55 284 3.0 7.0 0.00 0.00 0.00 81 1006.0
20260508160104 55 277 4.0 7.0 0.00 0.00 0.00 81 1005.7
20260508160004 55 275 4.0 7.0 0.00 0.00 0.00 81 1005.9
20260508155904 55 278 4.0 7.0 0.00 0.00 0.00 80 1006.2
20260508155804 55 278 4.0 7.0 0.00 0.00 0.00 80 1005.8
20260508155704 55 278 4.0 8.0 0.00 0.00 0.00 81 1005.9
20260508155604 54 277 4.0 8.0 0.00 0.00 0.00 81 1005.8
20260508155504 54 276 4.0 8.0 0.00 0.00 0.00 80 1005.8
20260508155404 54 275 4.0 8.0 0.00 0.00 0.00 80 1005.7
20260508155325 54 274 4.0 8.0 0.00 0.00 0.00 79 1006.0
20260508155204 54 274 4.0 8.0 0.00 0.00 0.00 80 1005.9
20260508155125 54 275 4.0 8.0 0.00 0.00 0.00 81 1005.9
20260508155004 54 274 4.0 8.0 0.00 0.00 0.00 79 1006.0
20260508154925 54 274 4.0 8.0 0.00 0.00 0.00 79 1005.8
20260508154825 54 272 4.0 8.0 0.00 0.00 0.00 79 1006.0
20260508154704 55 274 4.0 8.0 0.00 0.00 0.00 79 1006.0
20260508154604 55 273 4.0 8.0 0.00 0.00 0.00 80 1005.8
20260508154504 55 275 4.0 8.0 0.00 0.00 0.00 81 1005.8
20260508154425 55 274 4.0 8.0 0.00 0.00 0.00 80 1005.9
20260508154325 55 276 4.0 8.0 0.00 0.00 0.00 79 1006.0
20260508154204 55 272 4.0 8.0 0.00 0.00 0.00 77 1006.0
20260508154104 55 272 4.0 8.0 0.00 0.00 0.00 81 1005.9
20260508154025 55 272 4.0 8.0 0.00 0.00 0.00 80 1005.9
20260508153904 54 275 4.0 9.0 0.00 0.00 0.00 80 1005.9
20260508153804 55 277 4.0 9.0 0.00 0.00 0.00 79 1005.8
20260508153725 55 276 4.0 9.0 0.00 0.00 0.00 79 1006.0
20260508153604 55 273 4.0 9.0 0.00 0.00 0.00 80 1005.8
20260508153504 55 273 4.0 9.0 0.00 0.00 0.00 81 1005.8
20260508153404 55 276 4.0 9.0 0.00 0.00 0.00 83 1005.7
20260508153304 55 278 4.0 9.0 0.00 0.00 0.00 82 1005.8
20260508153204 55 278 5.0 9.0 0.00 0.00 0.00 82 1005.7
20260508153104 55 277 5.0 9.0 0.00 0.00 0.00 82 1005.8
20260508153004 55 277 4.0 9.0 0.00 0.00 0.00 83 1005.7
20260508152904 55 278 5.0 9.0 0.00 0.00 0.00 82 1005.8
20260508152825 55 279 4.0 8.0 0.00 0.00 0.00 83 1005.9
20260508152725 55 281 4.0 8.0 0.00 0.00 0.00 83 1005.7
20260508152604 55 283 4.0 8.0 0.00 0.00 0.00 82 1005.8
20260508152504 55 285 4.0 8.0 0.00 0.00 0.00 81 1005.7
20260508152404 55 283 4.0 8.0 0.00 0.00 0.00 81 1005.6
20260508152325 55 284 4.0 10.0 0.00 0.00 0.00 80 1005.9
20260508152204 56 285 4.0 10.0 0.00 0.00 0.00 81 1006.1
20260508152104 56 287 4.0 10.0 0.00 0.00 0.00 82 1006.0
20260508152004 56 287 4.0 10.0 0.00 0.00 0.00 82 1005.9
20260508151904 56 286 4.0 10.0 0.00 0.00 0.00 82 1005.9
20260508151825 56 285 4.0 10.0 0.00 0.00 0.00 82 1005.8
20260508151704 56 286 5.0 10.0 0.00 0.00 0.00 83 1005.8
20260508151604 55 285 5.0 10.0 0.00 0.00 0.00 83 1005.8
20260508151504 55 284 5.0 10.0 0.00 0.00 0.00 83 1005.8
20260508151404 55 284 5.0 10.0 0.00 0.00 0.00 83 1005.9
20260508151304 55 283 5.0 10.0 0.00 0.00 0.00 82 1005.9
20260508151204 55 285 5.0 9.0 0.00 0.00 0.00 81 1005.9
20260508151104 55 284 5.0 9.0 0.00 0.00 0.00 80 1005.8
20260508151004 55 284 5.0 9.0 0.00 0.00 0.00 80 1005.9
20260508150904 55 287 5.0 9.0 0.00 0.00 0.00 80 1005.9
20260508150804 55 290 4.0 9.0 0.00 0.00 0.00 81 1005.7
20260508150704 55 289 4.0 9.0 0.00 0.00 0.00 82 1005.8
20260508150604 55 291 4.0 9.0 0.00 0.00 0.00 82 1005.7
20260508150525 56 292 4.0 10.0 0.00 0.00 0.00 81 1006.1
20260508150404 56 293 5.0 10.0 0.00 0.00 0.00 81 1005.9
20260508150304 56 293 4.0 10.0 0.00 0.00 0.00 81 1005.9
20260508150225 56 291 4.0 10.0 0.00 0.00 0.00 81 1005.7
20260508150104 56 288 4.0 10.0 0.00 0.00 0.00 81 1006.0
20260508150005 56 287 4.0 10.0 0.00 0.00 0.00 81 1005.8
20260508145904 56 286 4.0 10.0 0.00 0.00 0.00 82 1005.9
20260508145825 56 284 5.0 10.0 0.00 0.00 0.00 82 1005.8
20260508145725 56 283 5.0 10.0 0.00 0.00 0.00 82 1005.8
20260508145604 56 281 5.0 10.0 0.00 0.00 0.00 82 1005.8
20260508145504 56 280 5.0 10.0 0.00 0.00 0.00 82 1005.8
20260508145404 56 281 5.0 9.0 0.00 0.00 0.00 81 1005.7
20260508145306 56 281 5.0 9.0 0.00 0.00 0.00 82 1005.8
20260508145204 55 286 5.0 9.0 0.00 0.00 0.00 82 1005.7
20260508145104 55 287 5.0 9.0 0.00 0.00 0.00 82 1005.9
20260508145004 55 287 5.0 9.0 0.00 0.00 0.00 82 1005.7
20260508144904 55 286 5.0 9.0 0.00 0.00 0.00 82 1005.7
20260508144804 55 286 5.0 8.0 0.00 0.00 0.00 82 1005.5
20260508144725 55 285 5.0 8.0 0.00 0.00 0.00 82 1005.9
20260508144604 55 286 5.0 8.0 0.00 0.00 0.00 82 1005.9
20260508144504 55 286 5.0 8.0 0.00 0.00 0.00 82 1005.9
20260508144404 55 284 5.0 9.0 0.00 0.00 0.00 82 1005.8
20260508144304 55 286 5.0 9.0 0.00 0.00 0.00 81 1005.9
20260508144204 55 287 5.0 9.0 0.00 0.00 0.00 82 1005.8
20260508144104 55 285 5.0 10.0 0.00 0.00 0.00 81 1005.7
20260508144025 55 286 5.0 10.0 0.00 0.00 0.00 81 1005.8
20260508143904 55 288 5.0 10.0 0.00 0.00 0.00 83 1005.8
20260508143804 55 288 5.0 13.0 0.00 0.00 0.00 81 1005.6
20260508143704 55 289 5.0 13.0 0.00 0.00 0.00 81 1005.7
20260508143625 55 289 5.0 13.0 0.00 0.00 0.00 81 1005.7
20260508143504 55 288 5.0 13.0 0.00 0.00 0.00 82 1005.7
20260508143425 55 291 5.0 13.0 0.00 0.00 0.00 82 1005.7
20260508143304 55 293 6.0 13.0 0.00 0.00 0.00 82 1005.8
20260508143225 55 291 6.0 13.0 0.00 0.00 0.00 82 1005.8
20260508143104 55 289 6.0 13.0 0.00 0.00 0.00 82 1005.8
20260508143004 55 288 6.0 13.0 0.00 0.00 0.00 82 1005.8
20260508142925 55 286 6.0 13.0 0.00 0.00 0.00 82 1006.0
20260508142804 55 284 6.0 13.0 0.00 0.00 0.00 82 1005.6
20260508142725 55 283 5.0 13.0 0.00 0.00 0.00 81 1005.9
20260508142604 55 280 5.0 11.0 0.00 0.00 0.00 81 1005.7
20260508142504 55 279 5.0 11.0 0.00 0.00 0.00 81 1005.9
20260508142425 55 277 5.0 11.0 0.00 0.00 0.00 82 1006.0
20260508142306 56 277 5.0 11.0 0.00 0.00 0.00 81 1005.9
20260508142204 56 278 5.0 11.0 0.00 0.00 0.00 82 1005.8
20260508142104 56 277 5.0 11.0 0.00 0.00 0.00 82 1005.8
20260508142004 56 276 5.0 11.0 0.00 0.00 0.00 82 1005.8
20260508141904 55 278 5.0 11.0 0.00 0.00 0.00 82 1005.8
20260508141804 55 279 5.0 11.0 0.00 0.00 0.00 82 1005.8
20260508141704 55 280 5.0 11.0 0.00 0.00 0.00 82 1005.8
20260508141604 55 281 5.0 11.0 0.00 0.00 0.00 80 1005.7
20260508141504 55 283 5.0 10.0 0.00 0.00 0.00 81 1005.9
20260508141404 56 283 5.0 10.0 0.00 0.00 0.00 80 1005.7
20260508141304 56 283 5.0 10.0 0.00 0.00 0.00 81 1005.7
20260508141204 56 280 5.0 10.0 0.00 0.00 0.00 81 1005.6
20260508141104 56 282 5.0 10.0 0.00 0.00 0.00 81 1005.8
20260508141004 56 285 5.0 10.0 0.00 0.00 0.00 80 1005.9
20260508140904 56 283 5.0 10.0 0.00 0.00 0.00 82 1005.5
20260508140804 56 284 6.0 10.0 0.00 0.00 0.00 81 1005.8
20260508140704 56 284 6.0 10.0 0.00 0.00 0.00 79 1005.6
20260508140604 56 287 6.0 10.0 0.00 0.00 0.00 80 1005.7
20260508140504 56 285 6.0 10.0 0.00 0.00 0.00 81 1005.8
20260508140404 56 285 6.0 10.0 0.00 0.00 0.00 81 1005.6
20260508140304 56 284 6.0 10.0 0.00 0.00 0.00 80 1005.5
20260508140204 56 283 5.0 10.0 0.00 0.00 0.00 79 1005.6
20260508140104 56 280 5.0 10.0 0.00 0.00 0.00 79 1005.7
20260508140004 56 282 5.0 10.0 0.00 0.00 0.00 78 1005.7
20260508135904 56 279 5.0 10.0 0.00 0.00 0.00 78 1005.6
20260508135804 56 279 5.0 10.0 0.00 0.00 0.00 77 1005.6
20260508135704 56 279 5.0 11.0 0.00 0.00 0.00 76 1005.6
20260508135604 56 278 5.0 11.0 0.00 0.00 0.00 79 1005.6
20260508135504 56 278 5.0 11.0 0.00 0.00 0.00 78 1005.7
20260508135404 56 281 6.0 11.0 0.00 0.00 0.00 78 1005.6
20260508135306 56 283 6.0 11.0 0.00 0.00 0.00 76 1005.7
20260508135204 56 283 6.0 11.0 0.00 0.00 0.00 77 1005.6
20260508135125 56 284 6.0 11.0 0.00 0.00 0.00 75 1005.6
20260508135004 56 284 6.0 11.0 0.00 0.00 0.00 76 1005.7
20260508134925 56 284 5.0 11.0 0.00 0.00 0.00 77 1005.6
20260508134804 56 285 5.0 11.0 0.00 0.00 0.00 75 1005.5
20260508134704 56 284 5.0 11.0 0.00 0.00 0.00 74 1005.5
20260508134604 56 284 5.0 9.0 0.00 0.00 0.00 75 1005.5
20260508134504 57 283 5.0 10.0 0.00 0.00 0.00 76 1005.6
20260508134404 57 279 5.0 10.0 0.00 0.00 0.00 75 1005.6
20260508134325 57 279 5.0 10.0 0.00 0.00 0.00 77 1005.7
20260508134204 57 280 5.0 10.0 0.00 0.00 0.00 77 1005.6
20260508134125 56 282 5.0 10.0 0.00 0.00 0.00 78 1005.6
20260508134004 56 282 5.0 10.0 0.00 0.00 0.00 75 1005.5
20260508133904 56 280 6.0 11.0 0.00 0.00 0.00 76 1005.3
20260508133804 56 276 6.0 11.0 0.00 0.00 0.00 76 1005.7
20260508133704 56 274 6.0 11.0 0.00 0.00 0.00 76 1005.5
20260508133604 56 271 6.0 11.0 0.00 0.00 0.00 75 1005.6
20260508133504 56 268 6.0 11.0 0.00 0.00 0.00 78 1005.5
20260508133425 56 270 7.0 11.0 0.00 0.00 0.00 76 1005.6
20260508133304 56 267 7.0 11.0 0.00 0.00 0.00 76 1005.5
20260508133225 56 267 7.0 11.0 0.00 0.00 0.00 77 1005.7
20260508133104 56 264 7.0 11.0 0.00 0.00 0.00 76 1005.4
20260508133004 56 262 7.0 11.0 0.00 0.00 0.00 77 1005.6
20260508132925 56 261 7.0 11.0 0.00 0.00 0.00 76 1005.4
20260508132804 56 270 6.0 11.0 0.00 0.00 0.00 73 1005.7
20260508132704 56 275 6.0 11.0 0.00 0.00 0.00 74 1005.7
20260508132604 56 278 6.0 11.0 0.00 0.00 0.00 77 1005.7
20260508132504 56 282 6.0 11.0 0.00 0.00 0.00 76 1005.6
20260508132404 57 284 6.0 11.0 0.00 0.00 0.00 77 1005.7
20260508132325 57 284 6.0 11.0 0.00 0.00 0.00 76 1005.5
20260508132204 57 288 6.0 11.0 0.00 0.00 0.00 76 1005.8
20260508132104 57 288 5.0 11.0 0.00 0.00 0.00 76 1005.7
20260508132004 56 290 5.0 11.0 0.00 0.00 0.00 75 1005.4
20260508131925 56 290 6.0 11.0 0.00 0.00 0.00 75 1005.7
20260508131804 56 287 6.0 11.0 0.00 0.00 0.00 75 1005.5
20260508131704 57 283 6.0 11.0 0.00 0.00 0.00 76 1005.2
20260508131625 57 285 6.0 11.0 0.00 0.00 0.00 75 1005.4
20260508131504 57 283 5.0 11.0 0.00 0.00 0.00 76 1005.6
20260508131404 57 279 5.0 10.0 0.00 0.00 0.00 76 1005.6
20260508131304 57 279 6.0 10.0 0.00 0.00 0.00 76 1005.6
20260508131204 56 280 5.0 10.0 0.00 0.00 0.00 77 1005.6
20260508131104 56 279 6.0 10.0 0.00 0.00 0.00 74 1005.6
20260508131004 57 280 6.0 10.0 0.00 0.00 0.00 68 1005.5
20260508130925 57 282 6.0 10.0 0.00 0.00 0.00 76 1005.5
20260508130804 57 280 5.0 10.0 0.00 0.00 0.00 77 1005.7
20260508130704 56 277 5.0 11.0 0.00 0.00 0.00 76 1005.7
20260508130604 57 274 5.0 11.0 0.00 0.00 0.00 75 1005.5
20260508130504 57 270 5.0 11.0 0.00 0.00 0.00 76 1005.6
20260508130425 57 272 5.0 11.0 0.00 0.00 0.00 74 1005.4
20260508130304 57 271 5.0 11.0 0.00 0.00 0.00 75 1005.6
20260508130204 57 265 5.0 11.0 0.00 0.00 0.00 75 1005.4
20260508130104 57 267 5.0 11.0 0.00 0.00 0.00 72 1005.6
20260508130004 57 269 5.0 11.0 0.00 0.00 0.00 73 1005.6
20260508125904 57 264 5.0 11.0 0.00 0.00 0.00 74 1005.4
20260508125804 57 265 5.0 11.0 0.00 0.00 0.00 72 1005.7
20260508125704 57 268 6.0 11.0 0.00 0.00 0.00 72 1005.5
20260508125604 57 269 6.0 11.0 0.00 0.00 0.00 74 1005.5
20260508125504 57 269 6.0 10.0 0.00 0.00 0.00 74 1005.5
20260508125404 57 268 6.0 11.0 0.00 0.00 0.00 74 1005.5
20260508125306 57 265 6.0 11.0 0.00 0.00 0.00 75 1005.5
20260508125204 57 268 6.0 11.0 0.00 0.00 0.00 73 1005.2
20260508125104 56 266 6.0 11.0 0.00 0.00 0.00 72 1005.5
20260508125004 56 266 6.0 11.0 0.00 0.00 0.00 74 1005.4
20260508124925 56 268 6.0 11.0 0.00 0.00 0.00 72 1005.3
20260508124804 56 267 6.0 11.0 0.00 0.00 0.00 72 1005.3
20260508124725 56 265 6.0 11.0 0.00 0.00 0.00 72 1005.4
20260508124625 56 266 6.0 11.0 0.00 0.00 0.00 71 1005.4
20260508124525 56 268 6.0 11.0 0.00 0.00 0.00 73 1005.6
20260508124404 57 269 6.0 11.0 0.00 0.00 0.00 71 1005.3
20260508124304 57 272 5.0 11.0 0.00 0.00 0.00 69 1005.4
20260508124204 56 272 5.0 10.0 0.00 0.00 0.00 70 1005.3
20260508124104 56 272 5.0 10.0 0.00 0.00 0.00 71 1005.1
20260508124004 56 273 5.0 10.0 0.00 0.00 0.00 71 1005.5
20260508123925 57 271 5.0 10.0 0.00 0.00 0.00 71 1005.4
20260508123804 57 274 6.0 11.0 0.00 0.00 0.00 71 1005.4
20260508123704 57 277 6.0 11.0 0.00 0.00 0.00 71 1005.4
20260508123604 57 279 6.0 11.0 0.00 0.00 0.00 70 1005.2
20260508123504 57 277 6.0 13.0 0.00 0.00 0.00 71 1005.4
20260508123404 56 278 7.0 13.0 0.00 0.00 0.00 72 1005.5
20260508123304 56 279 7.0 13.0 0.00 0.00 0.00 69 1005.4
20260508123225 56 280 7.0 13.0 0.00 0.00 0.00 72 1005.5
20260508123104 56 279 7.0 13.0 0.00 0.00 0.00 70 1005.5
20260508123004 56 276 7.0 14.0 0.00 0.00 0.00 71 1005.3
20260508122904 56 274 8.0 14.0 0.00 0.00 0.00 70 1005.5
20260508122804 56 275 8.0 14.0 0.00 0.00 0.00 72 1005.2
20260508122704 56 275 7.0 14.0 0.00 0.00 0.00 72 1005.5
20260508122625 56 274 7.0 14.0 0.00 0.00 0.00 70 1005.5
20260508122525 56 274 7.0 14.0 0.00 0.00 0.00 71 1005.4
20260508122425 56 270 7.0 14.0 0.00 0.00 0.00 72 1005.3
20260508122307 56 266 7.0 14.0 0.00 0.00 0.00 73 1005.4
20260508122204 56 265 7.0 14.0 0.00 0.00 0.00 74 1005.4
20260508122104 56 264 7.0 14.0 0.00 0.00 0.00 74 1005.3
20260508122025 57 265 7.0 14.0 0.00 0.00 0.00 74 1005.3
20260508121904 57 269 7.0 14.0 0.00 0.00 0.00 73 1005.4
20260508121804 56 269 7.0 13.0 0.00 0.00 0.00 73 1005.2
20260508121704 56 266 7.0 13.0 0.00 0.00 0.00 75 1005.4
20260508121604 56 266 7.0 13.0 0.00 0.00 0.00 75 1005.3
20260508121504 56 264 7.0 13.0 0.00 0.00 0.00 75 1005.3
20260508121404 56 263 7.0 13.0 0.00 0.00 0.00 76 1005.4
20260508121325 56 267 7.0 13.0 0.00 0.00 0.00 75 1005.2
20260508121204 56 269 8.0 13.0 0.00 0.00 0.00 77 1005.3
20260508121104 56 270 8.0 14.0 0.00 0.00 0.00 76 1005.3
20260508121004 56 268 8.0 14.0 0.00 0.00 0.00 77 1005.3
20260508120904 56 264 8.0 14.0 0.00 0.00 0.00 78 1005.3
20260508120804 56 263 8.0 14.0 0.00 0.00 0.00 77 1005.3
20260508120725 56 266 8.0 14.0 0.00 0.00 0.00 79 1005.3
20260508120604 56 267 8.0 14.0 0.00 0.00 0.00 80 1005.3
20260508120504 55 268 8.0 14.0 0.00 0.00 0.00 80 1005.2
20260508120425 55 270 8.0 14.0 0.00 0.00 0.00 80 1005.2
20260508120304 55 267 7.0 14.0 0.00 0.00 0.00 80 1005.3
20260508120204 56 265 7.0 14.0 0.00 0.00 0.00 80 1005.3
20260508120104 56 264 7.0 14.0 0.00 0.00 0.00 81 1005.3
20260508120025 56 265 6.0 14.0 0.00 0.00 0.00 82 1005.4
20260508115904 56 269 6.0 13.0 0.00 0.00 0.00 80 1005.4
20260508115804 57 268 6.0 13.0 0.00 0.00 0.00 80 1005.3
20260508115725 57 269 6.0 13.0 0.00 0.00 0.00 81 1005.2
20260508115604 57 266 6.0 13.0 0.00 0.00 0.00 81 1005.2
20260508115504 57 264 6.0 11.0 0.00 0.00 0.00 82 1005.2
20260508115404 57 263 5.0 11.0 0.00 0.00 0.00 82 1005.4
20260508115306 57 266 5.0 11.0 0.00 0.00 0.00 82 1005.3
20260508115204 57 268 5.0 13.0 0.00 0.00 0.00 81 1005.1
20260508115104 57 266 5.0 13.0 0.00 0.00 0.00 81 1005.1
20260508115004 57 268 6.0 13.0 0.00 0.00 0.00 80 1005.2
20260508114904 57 268 6.0 13.0 0.00 0.00 0.00 82 1005.1
20260508114804 56 270 6.0 13.0 0.00 0.00 0.00 82 1005.1
20260508114725 56 267 6.0 13.0 0.00 0.00 0.00 82 1005.2
20260508114604 57 268 7.0 13.0 0.00 0.00 0.00 81 1005.2
20260508114504 57 269 6.0 13.0 0.00 0.00 0.00 81 1005.1
20260508114425 56 271 7.0 13.0 0.00 0.00 0.00 82 1005.3
20260508114304 56 274 7.0 13.0 0.00 0.00 0.00 82 1005.1
20260508114225 56 273 7.0 13.0 0.00 0.00 0.00 83 1005.1
20260508114104 56 272 8.0 13.0 0.00 0.00 0.00 81 1005.3
20260508114004 56 271 8.0 13.0 0.00 0.00 0.00 80 1005.0
20260508113925 56 269 8.0 13.0 0.00 0.00 0.00 81 1005.1
20260508113804 56 268 7.0 13.0 0.00 0.00 0.00 81 1005.3
20260508113704 56 272 7.0 13.0 0.00 0.00 0.00 81 1005.4
20260508113625 56 274 7.0 13.0 0.00 0.00 0.00 81 1005.2
20260508113525 56 274 7.0 13.0 0.00 0.00 0.00 80 1005.1
20260508113404 56 272 7.0 13.0 0.00 0.00 0.00 80 1005.3
20260508113304 56 269 7.0 13.0 0.00 0.00 0.00 81 1005.3
20260508113225 56 270 7.0 13.0 0.00 0.00 0.00 80 1005.2
20260508113104 56 270 7.0 13.0 0.00 0.00 0.00 80 1005.4
20260508113004 56 270 7.0 13.0 0.00 0.00 0.00 82 1005.1
20260508112925 56 270 7.0 13.0 0.00 0.00 0.00 82 1005.1
20260508112804 56 269 7.0 13.0 0.00 0.00 0.00 83 1005.0
20260508112725 55 270 7.0 13.0 0.00 0.00 0.00 83 1005.0
20260508112604 55 270 7.0 13.0 0.00 0.00 0.00 82 1005.1
20260508112525 56 269 7.0 13.0 0.00 0.00 0.00 81 1005.1
20260508112404 56 269 7.0 13.0 0.00 0.00 0.00 80 1005.0
20260508112306 56 271 6.0 13.0 0.00 0.00 0.00 79 1005.2
20260508112204 56 272 6.0 13.0 0.00 0.00 0.00 78 1005.2
20260508112104 57 270 6.0 13.0 0.00 0.00 0.00 80 1005.3
20260508112025 57 268 6.0 13.0 0.00 0.00 0.00 79 1005.0
20260508111904 57 269 6.0 11.0 0.00 0.00 0.00 80 1005.2
20260508111825 57 270 6.0 11.0 0.00 0.00 0.00 78 1005.0
20260508111704 57 263 6.0 11.0 0.00 0.00 0.00 78 1004.9
20260508111604 57 255 6.0 11.0 0.00 0.00 0.00 79 1005.1
20260508111504 57 251 6.0 11.0 0.00 0.00 0.00 77 1005.0
20260508111425 57 248 6.0 11.0 0.00 0.00 0.00 77 1005.0
20260508111304 57 244 7.0 11.0 0.00 0.00 0.00 80 1005.0
20260508111204 57 241 7.0 11.0 0.00 0.00 0.00 79 1005.0
20260508111104 58 241 7.0 14.0 0.00 0.00 0.00 81 1005.2
20260508111004 58 241 7.0 14.0 0.00 0.00 0.00 77 1004.9
20260508110904 58 240 7.0 15.0 0.00 0.00 0.00 69 1005.1
20260508110825 58 236 8.0 15.0 0.00 0.00 0.00 67 1004.9
20260508110704 57 241 7.0 15.0 0.00 0.00 0.00 67 1005.0
20260508110604 57 247 8.0 15.0 0.00 0.00 0.00 67 1005.1
20260508110504 58 248 8.0 15.0 0.00 0.00 0.00 63 1005.2
20260508110404 58 249 8.0 15.0 0.00 0.00 0.00 67 1005.0
20260508110325 57 250 8.0 15.0 0.00 0.00 0.00 67 1005.0
20260508110204 57 248 8.0 15.0 0.00 0.00 0.00 68 1004.9
20260508110125 57 246 9.0 16.0 0.00 0.00 0.00 67 1005.0
20260508110025 57 245 8.0 16.0 0.00 0.00 0.00 66 1004.9
20260508105925 57 240 8.0 16.0 0.00 0.00 0.00 69 1005.0
20260508105804 57 239 8.0 16.0 0.00 0.00 0.00 68 1005.1
20260508105725 57 237 8.0 16.0 0.00 0.00 0.00 69 1005.0
20260508105625 57 227 8.0 16.0 0.00 0.00 0.00 66 1005.0
20260508105504 57 226 8.0 16.0 0.00 0.00 0.00 68 1005.1
20260508105404 57 226 8.0 16.0 0.00 0.00 0.00 67 1004.9
20260508105306 57 223 7.0 16.0 0.00 0.00 0.00 67 1005.1
20260508105204 57 222 7.0 16.0 0.00 0.00 0.00 67 1005.0
20260508105104 57 222 7.0 16.0 0.00 0.00 0.00 67 1005.0
20260508105025 57 223 7.0 16.0 0.00 0.00 0.00 66 1005.0
20260508104904 57 226 7.0 15.0 0.00 0.00 0.00 68 1004.8
20260508104804 58 225 7.0 11.0 0.00 0.00 0.00 68 1005.1
20260508104725 58 225 7.0 11.0 0.00 0.00 0.00 67 1004.9
20260508104604 57 231 7.0 11.0 0.00 0.00 0.00 68 1004.8
20260508104504 57 229 6.0 11.0 0.00 0.00 0.00 67 1005.0
20260508104404 58 228 6.0 11.0 0.00 0.00 0.00 67 1004.9
20260508104304 58 232 6.0 11.0 0.00 0.00 0.00 65 1004.7
20260508104204 57 234 7.0 11.0 0.00 0.00 0.00 69 1004.9
20260508104104 57 233 7.0 13.0 0.00 0.00 0.00 71 1004.7
20260508104004 57 234 7.0 13.0 0.00 0.00 0.00 71 1004.7
20260508103904 57 238 7.0 13.0 0.00 0.00 0.00 67 1004.9
20260508103804 57 237 7.0 13.0 0.00 0.00 0.00 68 1004.9
20260508103725 57 238 7.0 13.0 0.00 0.00 0.00 66 1005.1
20260508103604 57 239 7.0 13.0 0.00 0.00 0.00 69 1004.7
20260508103504 57 243 7.0 13.0 0.00 0.00 0.00 66 1005.0
20260508103404 57 240 8.0 13.0 0.00 0.00 0.00 68 1005.0
20260508103304 57 243 7.0 13.0 0.00 0.00 0.00 66 1004.9
20260508103204 57 244 8.0 13.0 0.00 0.00 0.00 69 1005.0
20260508103104 57 246 8.0 13.0 0.00 0.00 0.00 66 1005.0
20260508103004 57 244 8.0 13.0 0.00 0.00 0.00 65 1004.7
20260508102904 57 243 8.0 13.0 0.00 0.00 0.00 66 1004.7
20260508102804 56 245 8.0 13.0 0.00 0.00 0.00 70 1004.8
20260508102704 56 246 8.0 13.0 0.00 0.00 0.00 71 1004.8
20260508102604 56 247 8.0 13.0 0.00 0.00 0.00 70 1004.8
20260508102503 56 244 7.0 13.0 0.00 0.00 0.00 71 1004.9
20260508102404 56 245 7.0 13.0 0.00 0.00 0.00 71 1004.9
20260508102306 56 243 7.0 13.0 0.00 0.00 0.00 72 1004.8
20260508102204 56 241 7.0 13.0 0.00 0.00 0.00 70 1004.9
20260508102125 56 242 7.0 13.0 0.00 0.00 0.00 74 1004.8
20260508102025 56 242 7.0 13.0 0.00 0.00 0.00 69 1004.8
20260508101904 56 245 7.0 13.0 0.00 0.00 0.00 70 1004.5
20260508101804 56 247 7.0 13.0 0.00 0.00 0.00 73 1004.9
20260508101704 56 248 7.0 13.0 0.00 0.00 0.00 77 1004.9
20260508101604 56 247 7.0 13.0 0.00 0.00 0.00 76 1004.6
20260508101504 56 248 7.0 13.0 0.00 0.00 0.00 76 1005.1
20260508101404 56 251 7.0 13.0 0.00 0.00 0.00 75 1004.9
20260508101304 56 248 6.0 13.0 0.00 0.00 0.00 76 1005.0
20260508101204 56 249 6.0 13.0 0.00 0.00 0.00 74 1005.0
20260508101104 56 248 6.0 13.0 0.00 0.00 0.00 76 1004.9
20260508101004 56 245 6.0 13.0 0.00 0.00 0.00 76 1004.9
20260508100925 56 242 6.0 13.0 0.00 0.00 0.00 77 1004.9
20260508100804 56 239 6.0 13.0 0.00 0.00 0.00 78 1004.9
20260508100704 56 241 6.0 13.0 0.00 0.00 0.00 75 1005.1
20260508100603 56 242 6.0 13.0 0.00 0.00 0.00 76 1004.8
20260508100504 57 242 6.0 13.0 0.00 0.00 0.00 76 1004.8
20260508100404 57 244 7.0 14.0 0.00 0.00 0.00 73 1004.7
20260508100304 57 248 7.0 14.0 0.00 0.00 0.00 77 1005.0
20260508100204 56 245 7.0 14.0 0.00 0.00 0.00 78 1004.9
20260508100104 55 244 8.0 14.0 0.00 0.00 0.00 80 1004.9
20260508100004 55 243 8.0 14.0 0.00 0.00 0.00 79 1004.8
20260508095904 55 244 8.0 14.0 0.00 0.00 0.00 76 1004.8
20260508095804 56 246 8.0 14.0 0.00 0.00 0.00 77 1004.8
20260508095704 56 246 8.0 14.0 0.00 0.00 0.00 78 1004.8
20260508095604 55 244 8.0 14.0 0.00 0.00 0.00 77 1004.7
20260508095504 55 242 9.0 14.0 0.00 0.00 0.00 76 1005.0
20260508095404 55 239 9.0 14.0 0.00 0.00 0.00 78 1005.0
20260508095325 55 236 9.0 14.0 0.00 0.00 0.00 77 1004.8
20260508095204 55 237 9.0 14.0 0.00 0.00 0.00 77 1004.8
20260508095104 55 240 9.0 15.0 0.00 0.00 0.00 78 1004.9
20260508095004 55 242 9.0 15.0 0.00 0.00 0.00 77 1004.9
20260508094925 55 242 9.0 15.0 0.00 0.00 0.00 77 1004.7
20260508094825 55 241 9.0 15.0 0.00 0.00 0.00 78 1004.9
20260508094704 55 240 9.0 15.0 0.00 0.00 0.00 79 1004.9
20260508094604 55 240 8.0 15.0 0.00 0.00 0.00 80 1004.8
20260508094504 55 239 8.0 15.0 0.00 0.00 0.00 79 1005.1
20260508094404 55 241 8.0 15.0 0.00 0.00 0.00 79 1004.9
20260508094304 55 242 7.0 15.0 0.00 0.00 0.00 78 1004.9
20260508094204 55 240 7.0 15.0 0.00 0.00 0.00 78 1004.7
20260508094104 55 239 7.0 15.0 0.00 0.00 0.00 79 1004.7
20260508094004 55 236 7.0 15.0 0.00 0.00 0.00 77 1005.0
20260508093904 56 233 6.0 13.0 0.00 0.00 0.00 80 1004.9
20260508093804 56 232 6.0 10.0 0.00 0.00 0.00 80 1004.9
20260508093704 55 235 6.0 13.0 0.00 0.00 0.00 80 1004.8
20260508093604 55 239 6.0 13.0 0.00 0.00 0.00 81 1004.7
20260508093504 55 241 6.0 13.0 0.00 0.00 0.00 80 1004.8
20260508093404 55 240 6.0 13.0 0.00 0.00 0.00 82 1004.8
20260508093304 55 239 6.0 13.0 0.00 0.00 0.00 81 1005.0
20260508093204 55 241 6.0 13.0 0.00 0.00 0.00 79 1004.8
20260508093104 55 241 6.0 13.0 0.00 0.00 0.00 81 1005.0
20260508093004 55 240 6.0 13.0 0.00 0.00 0.00 81 1004.9
20260508092904 55 241 6.0 13.0 0.00 0.00 0.00 80 1004.9
20260508092804 55 243 6.0 13.0 0.00 0.00 0.00 82 1004.7
20260508092704 55 239 6.0 13.0 0.00 0.00 0.00 82 1004.7
20260508092625 55 235 6.0 13.0 0.00 0.00 0.00 82 1004.8
20260508092504 54 237 6.0 10.0 0.00 0.00 0.00 83 1004.9
20260508092404 54 243 6.0 14.0 0.00 0.00 0.00 83 1004.6
20260508092312 54 242 6.0 14.0 0.00 0.00 0.00 83 1004.9
20260508092204 54 244 6.0 14.0 0.00 0.00 0.00 83 1004.9
20260508092104 54 244 7.0 14.0 0.00 0.00 0.00 82 1004.7
20260508092004 54 245 7.0 14.0 0.00 0.00 0.00 81 1004.7
20260508091904 54 245 7.0 14.0 0.00 0.00 0.00 82 1004.9
20260508091803 54 246 7.0 14.0 0.00 0.00 0.00 83 1004.8
20260508091704 54 247 7.0 14.0 0.00 0.00 0.00 82 1004.7
20260508091625 54 248 7.0 14.0 0.00 0.00 0.00 82 1004.7
20260508091504 53 247 7.0 14.0 0.00 0.00 0.00 82 1004.7
20260508091403 53 246 7.0 14.0 0.00 0.00 0.00 83 1004.6
20260508091304 54 247 7.0 14.0 0.00 0.00 0.00 82 1004.6
20260508091203 54 248 6.0 14.0 0.00 0.00 0.00 82 1004.9
20260508091104 54 249 6.0 11.0 0.00 0.00 0.00 83 1004.6
20260508091003 54 251 6.0 11.0 0.00 0.00 0.00 83 1004.7
20260508090904 54 253 6.0 11.0 0.00 0.00 0.00 83 1004.8
20260508090804 54 255 5.0 10.0 0.00 0.00 0.00 84 1004.8
20260508090704 54 255 5.0 10.0 0.00 0.00 0.00 83 1004.6
20260508090604 54 255 5.0 10.0 0.00 0.00 0.00 84 1004.7
20260508090525 54 257 5.0 10.0 0.00 0.00 0.00 85 1004.7
20260508090425 53 257 5.0 10.0 0.00 0.00 0.00 84 1004.7
20260508090304 53 258 5.0 10.0 0.00 0.00 0.00 86 1004.6
20260508090204 53 256 6.0 10.0 0.00 0.00 0.00 85 1004.6
20260508090125 53 254 6.0 10.0 0.00 0.00 0.00 85 1004.7
20260508090004 54 253 6.0 10.0 0.00 0.00 0.00 85 1004.8
20260508085904 54 253 6.0 10.0 0.00 0.00 0.00 85 1004.7
20260508085804 54 254 6.0 10.0 0.00 0.00 0.00 86 1004.3
20260508085704 54 254 6.0 10.0 0.00 0.00 0.00 86 1004.6
20260508085603 53 257 6.0 11.0 0.00 0.00 0.00 86 1004.5
20260508085525 53 256 6.0 11.0 0.00 0.00 0.00 86 1004.6
20260508085403 53 255 6.0 11.0 0.00 0.00 0.00 85 1004.7
20260508085306 53 256 6.0 11.0 0.00 0.00 0.00 86 1004.7
20260508085204 53 255 6.0 11.0 0.00 0.00 0.00 86 1004.6
20260508085125 53 256 6.0 11.0 0.00 0.00 0.00 86 1004.7
20260508085004 53 259 6.0 11.0 0.00 0.00 0.00 87 1004.5
20260508084904 53 259 7.0 11.0 0.00 0.00 0.00 86 1004.7
20260508084804 53 258 7.0 11.0 0.00 0.00 0.00 86 1004.5
20260508084704 53 258 7.0 11.0 0.00 0.00 0.00 85 1004.5
20260508084604 53 255 7.0 11.0 0.00 0.00 0.00 85 1004.6
20260508084504 53 256 6.0 11.0 0.00 0.00 0.00 86 1004.5
20260508084404 53 257 6.0 11.0 0.00 0.00 0.00 86 1004.7
20260508084324 53 258 6.0 11.0 0.00 0.00 0.00 86 1004.7
20260508084204 53 258 6.0 11.0 0.00 0.00 0.00 86 1004.5
20260508084125 53 260 6.0 11.0 0.00 0.00 0.00 87 1004.6
20260508084004 52 260 6.0 11.0 0.00 0.00 0.00 87 1004.7
20260508083904 52 260 6.0 11.0 0.00 0.00 0.00 87 1004.5
20260508083825 52 258 6.0 11.0 0.00 0.00 0.00 88 1004.5
20260508083704 52 258 6.0 13.0 0.00 0.00 0.00 88 1004.5
20260508083604 52 257 7.0 13.0 0.00 0.00 0.00 89 1004.7
20260508083504 52 255 7.0 13.0 0.00 0.00 0.00 88 1004.5
20260508083403 52 259 7.0 13.0 0.00 0.00 0.00 89 1004.5
20260508083304 52 261 7.0 13.0 0.00 0.00 0.00 88 1004.7
20260508083204 51 261 7.0 13.0 0.00 0.00 0.00 89 1004.4
20260508083104 51 259 7.0 13.0 0.00 0.00 0.00 88 1004.6
20260508083004 51 259 7.0 13.0 0.00 0.00 0.00 88 1004.5
20260508082904 51 260 7.0 13.0 0.00 0.00 0.00 88 1004.7
20260508082804 51 264 7.0 13.0 0.00 0.00 0.00 88 1004.6
20260508082724 51 261 7.0 13.0 0.00 0.00 0.00 88 1004.6
20260508082604 51 265 7.0 11.0 0.00 0.00 0.00 87 1004.6
20260508082503 51 265 7.0 11.0 0.00 0.00 0.00 88 1004.6
20260508082404 51 259 7.0 13.0 0.00 0.00 0.00 88 1004.5
20260508082306 51 257 7.0 13.0 0.00 0.00 0.00 89 1004.4
20260508082204 52 255 7.0 13.0 0.00 0.00 0.00 89 1004.6
20260508082104 52 255 7.0 13.0 0.00 0.00 0.00 90 1004.5
20260508082004 52 253 7.0 14.0 0.00 0.00 0.00 89 1004.3
20260508081904 52 248 7.0 14.0 0.00 0.00 0.00 90 1004.6
20260508081804 52 247 8.0 14.0 0.00 0.00 0.00 89 1004.5
20260508081725 52 249 8.0 14.0 0.00 0.00 0.00 89 1004.4
20260508081604 52 248 8.0 14.0 0.00 0.00 0.00 89 1004.6
20260508081504 52 247 8.0 14.0 0.00 0.00 0.00 89 1004.4
20260508081404 52 249 8.0 14.0 0.00 0.00 0.00 89 1004.4
20260508081304 52 249 8.0 14.0 0.00 0.00 0.00 89 1004.4
20260508081203 51 246 8.0 14.0 0.00 0.00 0.00 89 1004.5
20260508081104 52 241 8.0 14.0 0.00 0.00 0.00 89 1004.6
20260508081004 52 240 8.0 14.0 0.00 0.00 0.00 89 1004.3
20260508080904 52 242 7.0 13.0 0.00 0.00 0.00 90 1004.5
20260508080803 52 239 7.0 13.0 0.00 0.00 0.00 89 1004.5
20260508080704 52 235 7.0 13.0 0.00 0.00 0.00 90 1004.5
20260508080604 52 234 6.0 10.0 0.00 0.00 0.00 90 1004.7
20260508080504 52 235 6.0 10.0 0.00 0.00 0.00 90 1004.4
20260508080425 52 235 6.0 10.0 0.00 0.00 0.00 91 1004.4
20260508080304 52 234 6.0 9.0 0.00 0.00 0.00 91 1004.4
20260508080204 52 237 6.0 9.0 0.00 0.00 0.00 90 1004.4
20260508080104 52 241 6.0 9.0 0.00 0.00 0.00 90 1004.5
20260508080004 52 246 6.0 9.0 0.00 0.00 0.00 91 1004.4
20260508075904 52 248 6.0 9.0 0.00 0.00 0.00 91 1004.5
20260508075804 52 250 6.0 10.0 0.00 0.00 0.00 92 1004.5
20260508075704 52 250 6.0 11.0 0.00 0.00 0.00 91 1004.4
20260508075604 52 253 6.0 11.0 0.00 0.00 0.00 92 1004.5
20260508075525 51 254 6.0 11.0 0.00 0.00 0.00 92 1004.5
20260508075404 51 253 7.0 11.0 0.00 0.00 0.00 92 1004.3
20260508075308 52 253 7.0 11.0 0.00 0.00 0.00 92 1004.3
20260508075204 52 252 6.0 11.0 0.00 0.00 0.00 92 1004.4
20260508075125 51 253 6.0 11.0 0.00 0.00 0.00 93 1004.3
20260508075024 51 254 6.0 11.0 0.00 0.00 0.00 93 1004.4
20260508074904 51 251 6.0 11.0 0.00 0.00 0.00 93 1004.3
20260508074804 51 251 6.0 11.0 0.00 0.00 0.00 93 1004.3
20260508074704 51 252 6.0 11.0 0.00 0.00 0.00 93 1004.3
20260508074604 51 250 6.0 11.0 0.00 0.00 0.00 94 1004.3
20260508074504 51 250 6.0 11.0 0.00 0.00 0.00 95 1004.4
20260508074404 51 248 6.0 11.0 0.00 0.00 0.00 95 1004.3
20260508074324 51 249 6.0 9.0 0.00 0.00 0.00 95 1004.2
20260508074204 51 247 6.0 9.0 0.00 0.00 0.00 95 1004.3
20260508074103 51 244 6.0 9.0 0.00 0.00 0.00 96 1004.3
20260508074004 51 243 6.0 11.0 0.00 0.00 0.00 96 1004.3
20260508073903 51 243 6.0 11.0 0.00 0.00 0.00 96 1004.3
20260508073804 51 243 6.0 11.0 0.00 0.00 0.00 96 1004.3
20260508073703 51 241 6.0 13.0 0.00 0.00 0.00 96 1004.7
20260508073604 51 239 6.0 13.0 0.00 0.00 0.00 96 1004.3
20260508073504 51 238 6.0 13.0 0.00 0.00 0.00 96 1004.4
20260508073425 51 237 6.0 13.0 0.00 0.00 0.00 96 1004.3
20260508073304 51 235 6.0 13.0 0.00 0.00 0.00 96 1004.5
20260508073203 51 237 6.0 13.0 0.00 0.00 0.00 96 1004.1
20260508073104 51 238 6.0 13.0 0.00 0.00 0.00 96 1004.2
20260508073024 51 240 6.0 13.0 0.00 0.00 0.00 96 1004.2
20260508072904 51 238 7.0 13.0 0.00 0.00 0.00 96 1004.1
20260508072803 51 236 7.0 13.0 0.00 0.00 0.00 96 1004.3
20260508072704 51 236 7.0 13.0 0.00 0.00 0.00 96 1004.4
20260508072603 51 238 7.0 13.0 0.00 0.00 0.00 96 1004.4
20260508072504 50 238 6.0 13.0 0.00 0.00 0.00 96 1004.4
20260508072424 50 239 6.0 13.0 0.00 0.00 0.00 96 1004.2
20260508072307 50 239 6.0 13.0 0.00 0.00 0.00 96 1004.1
20260508072224 50 236 6.0 13.0 0.00 0.00 0.00 96 1004.3
20260508072104 50 235 6.0 13.0 0.00 0.00 0.00 96 1004.2
20260508072004 50 234 6.0 11.0 0.00 0.00 0.00 96 1004.3
20260508071904 50 235 6.0 13.0 0.00 0.00 0.00 97 1004.1
20260508071804 51 238 5.0 13.0 0.00 0.00 0.00 97 1004.3
20260508071703 51 238 5.0 13.0 0.00 0.00 0.00 97 1004.2
20260508071604 50 238 5.0 13.0 0.00 0.00 0.00 97 1004.2
20260508071504 50 238 5.0 13.0 0.00 0.00 0.00 98 1004.1
20260508071404 50 238 5.0 13.0 0.00 0.00 0.00 98 1004.1
20260508071304 50 239 5.0 13.0 0.00 0.00 0.00 98 1004.1
20260508071204 50 241 5.0 13.0 0.00 0.00 0.00 98 1003.9
20260508071104 50 240 5.0 13.0 0.00 0.00 0.00 98 1004.2
20260508071004 50 241 5.0 13.0 0.00 0.00 0.00 98 1004.0
20260508070903 50 240 5.0 13.0 0.00 0.00 0.00 98 1004.1
20260508070804 50 238 4.0 13.0 0.00 0.00 0.00 98 1004.0
20260508070704 50 240 4.0 9.0 0.00 0.00 0.00 98 1004.0
20260508070604 50 235 4.0 9.0 0.00 0.00 0.00 99 1004.1
20260508070525 50 236 4.0 9.0 0.00 0.00 0.00 98 1004.0
20260508070404 50 232 4.0 7.0 0.00 0.00 0.00 98 1003.8
20260508070304 50 229 4.0 7.0 0.00 0.00 0.00 99 1003.8
20260508070224 50 230 4.0 7.0 0.00 0.00 0.00 99 1003.7
20260508070104 49 226 4.0 7.0 0.00 0.00 0.00 99 1003.9
20260508070004 49 226 4.0 7.0 0.00 0.00 0.00 99 1003.9
20260508065904 49 227 4.0 7.0 0.00 0.00 0.00 99 1003.9
20260508065824 49 229 4.0 7.0 0.00 0.00 0.00 99 1003.9
20260508065725 49 228 4.0 7.0 0.00 0.00 0.00 99 1004.0
20260508065604 49 228 4.0 7.0 0.00 0.00 0.00 99 1003.9
20260508065504 49 228 4.0 7.0 0.00 0.00 0.00 99 1004.1
20260508065404 49 229 4.0 7.0 0.00 0.00 0.00 99 1004.0
20260508065306 49 230 4.0 7.0 0.00 0.00 0.00 99 1003.8
20260508065225 48 230 4.0 7.0 0.00 0.00 0.00 99 1003.8
20260508065104 48 229 4.0 7.0 0.00 0.00 0.00 99 1003.8
20260508065004 48 229 4.0 7.0 0.00 0.00 0.00 99 1003.9
20260508064925 48 228 4.0 7.0 0.00 0.00 0.00 99 1004.1
20260508064804 48 227 4.0 7.0 0.00 0.00 0.00 99 1003.8
20260508064704 48 226 4.0 7.0 0.00 0.00 0.00 99 1003.8
20260508064625 48 226 4.0 7.0 0.00 0.00 0.00 99 1003.7
20260508064525 48 229 4.0 7.0 0.00 0.00 0.00 99 1003.8
20260508064403 48 230 4.0 7.0 0.00 0.00 0.00 99 1003.8
20260508064304 48 231 4.0 7.0 0.00 0.00 0.00 99 1003.8
20260508064203 48 231 4.0 7.0 0.00 0.00 0.00 99 1003.8
20260508064104 48 234 4.0 7.0 0.00 0.00 0.00 99 1003.7
20260508064004 48 232 4.0 7.0 0.00 0.00 0.00 99 1003.8
20260508063904 48 233 4.0 7.0 0.00 0.00 0.00 99 1003.8
20260508063804 48 232 4.0 7.0 0.00 0.00 0.00 99 1003.6
20260508063703 48 232 3.0 7.0 0.00 0.00 0.00 99 1003.7
20260508063604 48 233 3.0 6.0 0.00 0.00 0.00 99 1003.8
20260508063504 48 229 3.0 6.0 0.00 0.00 0.00 99 1003.8
20260508063404 48 226 3.0 7.0 0.00 0.00 0.00 99 1003.8
20260508063304 48 227 4.0 7.0 0.00 0.00 0.00 99 1003.8
20260508063204 48 228 4.0 7.0 0.00 0.00 0.00 99 1003.6
20260508063103 48 226 3.0 7.0 0.00 0.00 0.00 99 1003.5
20260508063004 48 227 4.0 7.0 0.00 0.00 0.00 99 1003.9
20260508062903 48 225 4.0 7.0 0.00 0.00 0.00 99 1003.9
20260508062804 48 226 4.0 7.0 0.00 0.00 0.00 99 1003.9
20260508062703 48 228 4.0 7.0 0.00 0.00 0.00 99 1003.7
20260508062604 48 228 4.0 7.0 0.00 0.00 0.00 99 1003.7
20260508062504 48 229 4.0 7.0 0.00 0.00 0.00 99 1003.8
20260508062404 48 232 4.0 7.0 0.00 0.00 0.00 99 1003.6
20260508062325 48 232 4.0 6.0 0.00 0.00 0.00 99 1003.5
20260508062204 48 231 3.0 6.0 0.00 0.00 0.00 99 1003.6
20260508062104 48 231 3.0 6.0 0.00 0.00 0.00 99 1003.7
20260508062025 48 231 3.0 6.0 0.00 0.00 0.00 99 1003.8
20260508061904 48 235 3.0 6.0 0.00 0.00 0.00 99 1003.8
20260508061804 48 235 3.0 6.0 0.00 0.00 0.00 99 1003.6
20260508061704 48 236 3.0 6.0 0.00 0.00 0.00 99 1003.6
20260508061603 48 237 3.0 6.0 0.00 0.00 0.00 99 1003.7
20260508061504 48 238 3.0 6.0 0.00 0.00 0.00 99 1003.8
20260508061403 48 238 3.0 6.0 0.00 0.00 0.00 99 1003.6
20260508061304 48 237 3.0 6.0 0.00 0.00 0.00 99 1003.6
20260508061203 48 241 3.0 6.0 0.00 0.00 0.00 99 1003.8
20260508061104 48 243 3.0 4.0 0.00 0.00 0.00 99 1003.6
20260508061003 48 245 3.0 4.0 0.00 0.00 0.00 99 1003.6
20260508060904 48 244 3.0 4.0 0.00 0.00 0.00 99 1003.6
20260508060803 48 245 3.0 4.0 0.00 0.00 0.00 99 1003.3
20260508060704 48 246 2.0 4.0 0.00 0.00 0.00 99 1003.8
20260508060604 48 249 2.0 4.0 0.00 0.00 0.00 99 1003.7
20260508060504 47 248 2.0 4.0 0.00 0.00 0.00 99 1003.6
20260508060404 47 249 2.0 4.0 0.00 0.00 0.00 99 1003.5
20260508060304 47 249 2.0 4.0 0.00 0.00 0.00 99 1003.6
20260508060204 47 247 2.0 7.0 0.00 0.00 0.00 99 1003.5
20260508060105 47 244 2.0 7.0 0.00 0.00 0.00 99 1003.5
20260508060004 47 244 3.0 7.0 0.00 0.00 0.00 99 1003.6
20260508055904 47 246 3.0 7.0 0.00 0.00 0.00 99 1003.7
20260508055803 47 244 3.0 7.0 0.00 0.00 0.00 99 1003.5
20260508055704 47 242 3.0 7.0 0.00 0.00 0.00 99 1003.6
20260508055604 47 241 3.0 7.0 0.00 0.00 0.00 99 1003.5
20260508055524 47 241 3.0 7.0 0.00 0.00 0.00 99 1003.5
20260508055404 47 243 4.0 10.0 0.00 0.00 0.00 99 1003.5
20260508055306 47 241 4.0 10.0 0.00 0.00 0.00 99 1003.6
20260508055225 47 240 4.0 10.0 0.00 0.00 0.00 99 1003.4
20260508055103 47 238 5.0 10.0 0.00 0.00 0.00 99 1003.4
20260508055004 47 236 5.0 10.0 0.00 0.00 0.00 99 1003.5
20260508054903 47 234 5.0 10.0 0.00 0.00 0.00 99 1003.2
20260508054804 47 233 5.0 10.0 0.00 0.00 0.00 99 1003.5
20260508054703 47 236 5.0 10.0 0.00 0.00 0.00 99 1003.6
20260508054603 47 236 5.0 10.0 0.00 0.00 0.00 99 1003.4
20260508054504 47 234 5.0 10.0 0.00 0.00 0.00 99 1003.4
20260508054404 47 231 5.0 10.0 0.00 0.00 0.00 99 1003.3
20260508054304 47 231 5.0 10.0 0.00 0.00 0.00 99 1003.5
20260508054203 47 231 5.0 8.0 0.00 0.00 0.00 99 1003.5
20260508054104 47 234 4.0 8.0 0.00 0.00 0.00 99 1003.4
20260508054003 47 236 4.0 8.0 0.00 0.00 0.00 99 1003.2
20260508053925 47 235 4.0 8.0 0.00 0.00 0.00 99 1003.5
20260508053803 47 237 4.0 8.0 0.00 0.00 0.00 99 1003.4
20260508053704 47 233 4.0 8.0 0.00 0.00 0.00 99 1003.3
20260508053603 47 232 4.0 8.0 0.00 0.00 0.00 99 1003.3
20260508053504 47 233 4.0 7.0 0.00 0.00 0.00 99 1003.4
20260508053403 47 235 4.0 7.0 0.00 0.00 0.00 99 1003.2
20260508053325 47 235 4.0 7.0 0.00 0.00 0.00 99 1003.3
20260508053203 47 237 4.0 7.0 0.00 0.00 0.00 99 1003.1
20260508053104 47 235 4.0 7.0 0.00 0.00 0.00 99 1003.4
20260508053003 47 234 4.0 7.0 0.00 0.00 0.00 99 1003.1
20260508052903 47 234 4.0 7.0 0.00 0.00 0.00 99 1003.1
20260508052804 47 234 4.0 8.0 0.00 0.00 0.00 99 1003.1
20260508052724 47 236 4.0 8.0 0.00 0.00 0.00 99 1003.1
20260508052604 47 239 5.0 8.0 0.00 0.00 0.00 99 1003.3
20260508052524 47 240 5.0 8.0 0.00 0.00 0.00 99 1003.1
20260508052404 47 239 5.0 8.0 0.00 0.00 0.00 99 1003.0
20260508052324 47 240 5.0 8.0 0.00 0.00 0.00 99 1003.1
20260508052204 47 240 5.0 11.0 0.00 0.00 0.00 99 1003.3
20260508052124 47 241 5.0 11.0 0.00 0.00 0.00 99 1003.0
20260508052024 47 243 5.0 11.0 0.00 0.00 0.00 99 1003.2
20260508051904 47 244 5.0 11.0 0.00 0.00 0.00 98 1002.9
20260508051803 47 245 5.0 11.0 0.00 0.00 0.00 98 1003.0
20260508051703 47 244 5.0 11.0 0.00 0.00 0.00 98 1002.9
20260508051603 48 242 5.0 11.0 0.00 0.00 0.00 98 1003.0
20260508051504 48 242 5.0 11.0 0.00 0.00 0.00 98 1003.0
20260508051404 48 241 5.0 11.0 0.00 0.00 0.00 98 1003.3
20260508051304 48 242 5.0 11.0 0.00 0.00 0.00 98 1002.9
20260508051203 48 241 5.0 11.0 0.00 0.00 0.00 97 1003.0
20260508051104 48 237 5.0 10.0 0.00 0.00 0.00 97 1002.9
20260508051003 48 239 5.0 10.0 0.00 0.00 0.00 97 1003.0
20260508050904 48 238 5.0 10.0 0.00 0.00 0.00 97 1002.9
20260508050825 48 239 5.0 10.0 0.00 0.00 0.00 97 1002.9
20260508050703 48 240 5.0 10.0 0.00 0.00 0.00 96 1003.1
20260508050603 48 239 5.0 10.0 0.00 0.00 0.00 96 1002.8
20260508050524 48 240 5.0 10.0 0.00 0.00 0.00 96 1003.0
20260508050404 48 242 5.0 10.0 0.00 0.00 0.00 96 1003.1
20260508050303 48 241 5.0 10.0 0.00 0.00 0.00 96 1002.8
20260508050204 48 241 5.0 10.0 0.00 0.00 0.00 95 1002.9
20260508050104 48 242 5.0 10.0 0.00 0.00 0.00 95 1002.8
20260508050003 48 242 5.0 10.0 0.00 0.00 0.00 95 1003.1
20260508045904 48 245 5.0 10.0 0.00 0.00 0.00 95 1002.7
20260508045803 48 246 5.0 11.0 0.00 0.00 0.00 95 1002.9
20260508045725 48 245 5.0 11.0 0.00 0.00 0.00 95 1002.9
20260508045603 48 244 5.0 11.0 0.00 0.00 0.00 95 1002.8
20260508045525 48 245 5.0 11.0 0.00 0.00 0.00 95 1002.8
20260508045403 48 242 5.0 11.0 0.00 0.00 0.00 95 1003.1
20260508045306 48 243 5.0 11.0 0.00 0.00 0.00 95 1002.7
20260508045203 48 246 5.0 11.0 0.00 0.00 0.00 95 1002.7
20260508045125 48 249 5.0 11.0 0.00 0.00 0.00 95 1002.9
20260508045004 48 251 5.0 11.0 0.00 0.00 0.00 95 1002.7
20260508044925 48 252 5.0 11.0 0.00 0.00 0.00 95 1002.7
20260508044804 48 253 5.0 11.0 0.00 0.00 0.00 95 1002.8
20260508044725 48 255 5.0 11.0 0.00 0.00 0.00 95 1002.9
20260508044604 48 254 5.0 11.0 0.00 0.00 0.00 95 1002.8
20260508044503 48 254 5.0 11.0 0.00 0.00 0.00 95 1002.7
20260508044424 48 256 5.0 11.0 0.00 0.00 0.00 95 1002.7
20260508044303 48 257 5.0 11.0 0.00 0.00 0.00 95 1002.9
20260508044204 48 258 5.0 11.0 0.00 0.00 0.00 95 1002.7
20260508044125 48 256 5.0 11.0 0.00 0.00 0.00 95 1002.9
20260508044004 48 254 5.0 11.0 0.00 0.00 0.00 95 1002.7
20260508043903 48 251 6.0 11.0 0.00 0.00 0.00 95 1002.7
20260508043804 48 250 6.0 11.0 0.00 0.00 0.00 95 1002.8
20260508043703 48 248 6.0 11.0 0.00 0.00 0.00 95 1002.9
20260508043603 48 246 6.0 11.0 0.00 0.00 0.00 95 1002.7
20260508043504 48 245 6.0 11.0 0.00 0.00 0.00 95 1002.9
20260508043403 48 243 5.0 9.0 0.00 0.00 0.00 95 1002.9
20260508043303 48 245 6.0 9.0 0.00 0.00 0.00 95 1002.8
20260508043224 48 243 6.0 9.0 0.00 0.00 0.00 95 1002.8
20260508043125 48 246 6.0 9.0 0.00 0.00 0.00 95 1002.9
20260508043003 48 244 6.0 10.0 0.00 0.00 0.00 95 1002.6
20260508042904 48 242 6.0 10.0 0.00 0.00 0.00 95 1002.9
20260508042803 48 241 6.0 10.0 0.00 0.00 0.00 95 1002.5
20260508042703 48 240 6.0 10.0 0.00 0.00 0.00 95 1002.7
20260508042604 48 241 5.0 10.0 0.00 0.00 0.00 95 1002.7
20260508042503 48 242 6.0 10.0 0.00 0.00 0.00 95 1002.7
20260508042403 48 244 6.0 10.0 0.00 0.00 0.00 95 1002.6
20260508042306 48 241 6.0 10.0 0.00 0.00 0.00 95 1002.7
20260508042203 48 242 6.0 10.0 0.00 0.00 0.00 95 1002.5
20260508042103 48 243 6.0 10.0 0.00 0.00 0.00 95 1002.5
20260508042004 48 244 5.0 10.0 0.00 0.00 0.00 95 1002.7
20260508041903 47 243 5.0 10.0 0.00 0.00 0.00 95 1002.6
20260508041804 47 244 5.0 10.0 0.00 0.00 0.00 95 1002.6
20260508041703 47 244 5.0 10.0 0.00 0.00 0.00 95 1002.6
20260508041604 47 242 5.0 10.0 0.00 0.00 0.00 95 1002.5
20260508041504 47 244 5.0 10.0 0.00 0.00 0.00 95 1002.6
20260508041425 47 246 5.0 10.0 0.00 0.00 0.00 95 1002.7
20260508041303 47 246 4.0 10.0 0.00 0.00 0.00 95 1002.7
20260508041203 47 246 5.0 10.0 0.00 0.00 0.00 95 1002.9
20260508041104 47 245 5.0 10.0 0.00 0.00 0.00 95 1002.8
20260508041024 47 245 5.0 10.0 0.00 0.00 0.00 95 1002.6
20260508040925 47 246 5.0 10.0 0.00 0.00 0.00 94 1002.6
20260508040824 47 247 5.0 10.0 0.00 0.00 0.00 94 1002.6
20260508040725 47 248 5.0 10.0 0.00 0.00 0.00 94 1002.7
20260508040603 47 252 6.0 9.0 0.00 0.00 0.00 94 1002.6
20260508040504 47 250 6.0 9.0 0.00 0.00 0.00 94 1002.6
20260508040403 47 248 6.0 9.0 0.00 0.00 0.00 94 1002.7
20260508040304 47 247 6.0 10.0 0.00 0.00 0.00 94 1002.6
20260508040203 47 243 6.0 10.0 0.00 0.00 0.00 94 1002.5
20260508040104 47 241 6.0 10.0 0.00 0.00 0.00 94 1002.5
20260508040004 47 239 7.0 10.0 0.00 0.00 0.00 94 1002.5
20260508035903 47 241 7.0 10.0 0.00 0.00 0.00 94 1002.6
20260508035804 47 240 7.0 10.0 0.00 0.00 0.00 94 1002.6
20260508035703 47 240 7.0 10.0 0.00 0.00 0.00 94 1002.3
20260508035625 47 238 7.0 10.0 0.00 0.00 0.00 94 1002.4
20260508035503 47 238 7.0 11.0 0.00 0.00 0.00 93 1002.4
20260508035404 47 239 7.0 11.0 0.00 0.00 0.00 93 1002.6
20260508035306 47 240 7.0 11.0 0.00 0.00 0.00 94 1002.3
20260508035204 47 244 7.0 11.0 0.00 0.00 0.00 93 1002.4
20260508035103 47 244 7.0 11.0 0.00 0.00 0.00 93 1002.6
20260508035003 47 245 7.0 11.0 0.00 0.00 0.00 93 1002.4
20260508034904 47 243 7.0 11.0 0.00 0.00 0.00 93 1002.7
20260508034803 47 244 6.0 11.0 0.00 0.00 0.00 93 1002.5
20260508034704 47 240 6.0 11.0 0.00 0.00 0.00 93 1002.5